Time,TemperatureF,DewpointF,PressureIn,WindDirection,WindDirectionDegrees,WindSpeedMPH,WindSpeedGustMPH,Humidity,HourlyPrecipIn,Conditions,Clouds,dailyrainin,SoftwareType,DateUTC
2013-03-18 00:00:00,43.3,40.0,29.97,East,85,9.2,9.2,88,0.00,,,0.19,WeatherDisplay:10.37,2013-03-18 04:00:00,
2013-03-18 00:05:00,43.2,39.9,29.97,East,87,8.1,8.1,88,0.00,RA,,0.00,WeatherDisplay:10.37,2013-03-18 04:05:00,
2013-03-18 00:10:00,43.2,39.9,29.97,ENE,71,8.1,8.1,88,0.00,RA,,0.00,WeatherDisplay:10.37,2013-03-18 04:10:00,
2013-03-18 00:12:00,43.2,39.9,29.98,ESE,103,8.1,8.1,88,0.00,,,0.00,WeatherDisplay:10.37,2013-03-18 04:12:00,
2013-03-18 00:15:00,43.3,40.0,29.97,East,90,7.0,15.0,88,0.00,,,0.00,WeatherDisplay:10.37,2013-03-18 04:15:00,
2013-03-18 00:17:00,43.2,39.9,29.97,East,82,10.4,10.4,88,0.00,,,0.00,WeatherDisplay:10.37,2013-03-18 04:17:00,
2013-03-18 00:20:00,43.2,39.9,29.97,ESE,105,6.9,6.9,88,0.00,,,0.00,WeatherDisplay:10.37,2013-03-18 04:20:00,
2013-03-18 00:21:00,43.1,39.8,29.97,East,96,11.5,11.5,88,0.00,,,0.00,WeatherDisplay:10.37,2013-03-18 04:21:00,
2013-03-18 00:24:00,43.1,39.8,29.97,ENE,70,11.5,11.5,88,0.00,,,0.00,WeatherDisplay:10.37,2013-03-18 04:24:00,
2013-03-18 00:25:00,43.0,39.7,29.98,East,85,10.4,10.4,88,0.00,,,0.00,WeatherDisplay:10.37,2013-03-18 04:25:00,
2013-03-18 00:27:00,43.0,39.7,29.97,NE,51,10.4,10.4,88,0.00,,,0.00,WeatherDisplay:10.37,2013-03-18 04:27:00,
2013-03-18 00:29:00,42.9,39.6,29.98,East,87,9.2,9.2,88,0.00,,,0.00,WeatherDisplay:10.37,2013-03-18 04:29:00,
2013-03-18 00:30:00,42.9,39.6,29.98,East,87,5.8,5.8,88,0.00,,,0.00,WeatherDisplay:10.37,2013-03-18 04:30:00,
2013-03-18 00:31:00,42.9,39.6,29.98,ENE,65,6.0,6.0,88,0.00,,,0.00,WeatherDisplay:10.37,2013-03-18 04:31:00,
2013-03-18 00:32:00,42.9,39.6,29.98,East,94,5.8,5.8,88,0.00,,,0.00,WeatherDisplay:10.37,2013-03-18 04:32:00,
2013-03-18 00:35:00,42.8,39.5,29.98,East,87,9.2,9.2,88,0.00,,,0.00,WeatherDisplay:10.37,2013-03-18 04:35:00,
2013-03-18 00:37:00,42.8,39.5,29.98,ENE,74,8.1,8.1,88,0.00,,,0.00,WeatherDisplay:10.37,2013-03-18 04:37:00,
2013-03-18 00:40:00,42.7,39.4,29.98,East,91,9.2,9.2,88,0.00,,,0.00,WeatherDisplay:10.37,2013-03-18 04:40:00,
2013-03-18 00:42:00,42.7,39.4,29.98,East,91,8.1,8.1,88,0.00,,,0.00,WeatherDisplay:10.37,2013-03-18 04:42:00,
2013-03-18 00:45:00,42.7,39.4,29.98,ENE,73,9.2,9.2,88,0.00,,,0.00,WeatherDisplay:10.37,2013-03-18 04:45:00,
2013-03-18 00:46:00,42.6,39.3,29.98,ENE,68,10.0,10.0,88,0.00,,,0.00,WeatherDisplay:10.37,2013-03-18 04:46:00,
2013-03-18 00:47:00,42.6,39.3,29.98,ESE,118,10.4,10.4,88,0.00,,,0.00,WeatherDisplay:10.37,2013-03-18 04:47:00,
2013-03-18 00:50:00,42.5,39.2,29.98,East,89,6.9,6.9,88,0.00,,,0.00,WeatherDisplay:10.37,2013-03-18 04:50:00,
2013-03-18 00:51:00,42.5,39.2,29.98,East,87,11.5,11.5,88,0.00,,,0.00,WeatherDisplay:10.37,2013-03-18 04:51:00,
2013-03-18 00:52:00,42.4,39.1,29.98,East,88,8.1,8.1,88,0.00,,,0.00,WeatherDisplay:10.37,2013-03-18 04:52:00,
2013-03-18 00:55:00,42.3,39.0,29.98,NE,50,11.5,11.5,88,0.00,,,0.00,WeatherDisplay:10.37,2013-03-18 04:55:00,
2013-03-18 00:57:00,42.3,39.0,29.98,ENE,75,5.8,5.8,88,0.00,,,0.00,WeatherDisplay:10.37,2013-03-18 04:57:00,
2013-03-18 00:58:00,42.2,38.9,29.98,East,88,9.0,9.0,88,0.00,,,0.00,WeatherDisplay:10.37,2013-03-18 04:58:00,
2013-03-18 01:01:00,42.1,38.8,29.97,East,95,6.0,6.0,88,0.00,,,0.00,WeatherDisplay:10.37,2013-03-18 05:01:00,
2013-03-18 01:02:00,42.0,38.7,29.98,ESE,109,8.1,8.1,88,0.00,,,0.00,WeatherDisplay:10.37,2013-03-18 05:02:00,
2013-03-18 01:03:00,42.0,38.7,29.98,East,81,8.1,8.1,88,0.00,,,0.00,WeatherDisplay:10.37,2013-03-18 05:03:00,
2013-03-18 01:06:00,42.0,38.7,29.98,ENE,77,9.0,9.0,88,0.00,,,0.00,WeatherDisplay:10.37,2013-03-18 05:06:00,
2013-03-18 01:08:00,42.0,38.7,29.98,ESE,118,9.2,9.2,88,0.00,,,0.00,WeatherDisplay:10.37,2013-03-18 05:08:00,
2013-03-18 01:09:00,42.0,38.7,29.98,East,85,6.9,6.9,88,0.00,,,0.00,WeatherDisplay:10.37,2013-03-18 05:09:00,
2013-03-18 01:12:00,42.0,38.7,29.97,East,85,6.9,6.9,88,0.00,,,0.00,WeatherDisplay:10.37,2013-03-18 05:12:00,
2013-03-18 01:13:00,41.9,38.6,29.98,East,81,8.1,8.1,88,0.00,,,0.00,WeatherDisplay:10.37,2013-03-18 05:13:00,
2013-03-18 01:14:00,41.9,38.6,29.98,ENE,65,8.1,8.1,88,0.00,,,0.00,WeatherDisplay:10.37,2013-03-18 05:14:00,
2013-03-18 01:17:00,41.9,38.6,29.98,East,91,9.2,9.2,88,0.00,,,0.00,WeatherDisplay:10.37,2013-03-18 05:17:00,
2013-03-18 01:18:00,41.9,38.6,29.98,East,81,6.9,6.9,88,0.00,,,0.00,WeatherDisplay:10.37,2013-03-18 05:18:00,
2013-03-18 01:19:00,41.9,38.6,29.98,East,82,6.0,6.0,88,0.00,,,0.00,WeatherDisplay:10.37,2013-03-18 05:19:00,
2013-03-18 01:22:00,41.8,38.5,29.98,ENE,77,5.8,5.8,88,0.00,,,0.00,WeatherDisplay:10.37,2013-03-18 05:22:00,
2013-03-18 01:23:00,41.8,38.5,29.98,ENE,78,5.8,5.8,88,0.00,,,0.00,WeatherDisplay:10.37,2013-03-18 05:23:00,
2013-03-18 01:24:00,41.8,38.5,29.98,East,95,9.2,9.2,88,0.00,,,0.00,WeatherDisplay:10.37,2013-03-18 05:24:00,
2013-03-18 01:25:00,41.8,38.5,29.98,East,91,9.2,9.2,88,0.00,,,0.00,WeatherDisplay:10.37,2013-03-18 05:25:00,
2013-03-18 01:28:00,41.8,38.5,29.98,East,85,5.8,5.8,88,0.00,,,0.00,WeatherDisplay:10.37,2013-03-18 05:28:00,
2013-03-18 01:29:00,41.8,38.5,29.98,East,88,9.2,9.2,88,0.00,,,0.00,WeatherDisplay:10.37,2013-03-18 05:29:00,
2013-03-18 01:30:00,41.7,38.4,29.98,East,101,6.9,6.9,88,0.00,,,0.00,WeatherDisplay:10.37,2013-03-18 05:30:00,
2013-03-18 01:33:00,41.7,38.4,29.99,NE,54,8.1,8.1,88,0.00,,,0.00,WeatherDisplay:10.37,2013-03-18 05:33:00,
2013-03-18 01:34:00,41.7,38.4,29.99,East,95,6.9,6.9,88,0.00,,,0.00,WeatherDisplay:10.37,2013-03-18 05:34:00,
2013-03-18 01:35:00,41.7,38.4,29.99,East,96,6.9,6.9,88,0.00,,,0.00,WeatherDisplay:10.37,2013-03-18 05:35:00,
2013-03-18 01:38:00,41.7,38.4,29.98,East,94,8.1,8.1,88,0.00,,,0.00,WeatherDisplay:10.37,2013-03-18 05:38:00,
2013-03-18 01:39:00,41.7,38.4,29.99,East,87,8.1,8.1,88,0.00,,,0.00,WeatherDisplay:10.37,2013-03-18 05:39:00,
2013-03-18 01:40:00,41.7,38.4,29.99,East,86,5.0,8.0,88,0.00,,,0.00,WeatherDisplay:10.37,2013-03-18 05:40:00,
2013-03-18 01:43:00,41.6,38.3,29.99,ESE,108,8.1,8.1,88,0.00,,,0.00,WeatherDisplay:10.37,2013-03-18 05:43:00,
2013-03-18 01:44:00,41.6,38.3,29.98,East,85,6.9,6.9,88,0.00,,,0.00,WeatherDisplay:10.37,2013-03-18 05:44:00,
2013-03-18 01:45:00,41.5,38.2,29.98,East,82,6.9,6.9,88,0.00,,,0.00,WeatherDisplay:10.37,2013-03-18 05:45:00,
2013-03-18 01:49:00,41.4,38.1,29.98,East,79,8.1,8.1,88,0.00,,,0.00,WeatherDisplay:10.37,2013-03-18 05:49:00,
2013-03-18 01:50:00,41.3,38.0,29.98,East,88,6.0,6.0,88,0.00,,,0.00,WeatherDisplay:10.37,2013-03-18 05:50:00,
2013-03-18 01:51:00,41.3,38.0,29.98,East,101,5.8,5.8,88,0.00,,,0.00,WeatherDisplay:10.37,2013-03-18 05:51:00,
2013-03-18 01:54:00,41.2,37.9,29.98,East,85,9.2,9.2,88,0.00,,,0.00,WeatherDisplay:10.37,2013-03-18 05:54:00,
2013-03-18 01:55:00,41.2,37.9,29.98,East,92,5.8,5.8,88,0.00,,,0.00,WeatherDisplay:10.37,2013-03-18 05:55:00,
2013-03-18 01:56:00,41.2,37.9,29.98,East,94,6.0,6.0,88,0.00,,,0.00,WeatherDisplay:10.37,2013-03-18 05:56:00,
2013-03-18 01:59:00,41.2,38.2,29.98,ENE,63,5.0,5.0,89,0.00,,,0.00,WeatherDisplay:10.37,2013-03-18 05:59:00,
2013-03-18 02:00:00,41.2,38.2,29.98,East,82,9.2,9.2,89,0.00,CLR,,0.00,WeatherDisplay:10.37,2013-03-18 06:00:00,
2013-03-18 02:01:00,41.2,38.2,29.98,East,98,9.2,9.2,89,0.00,CLR,,0.00,WeatherDisplay:10.37,2013-03-18 06:01:00,
2013-03-18 02:04:00,41.3,38.0,29.98,East,96,6.9,6.9,88,0.00,CLR,,0.00,WeatherDisplay:10.37,2013-03-18 06:04:00,
2013-03-18 02:05:00,41.3,38.0,29.98,East,98,6.9,6.9,88,0.00,CLR,,0.00,WeatherDisplay:10.37,2013-03-18 06:05:00,
2013-03-18 02:06:00,41.3,38.0,29.98,East,94,6.9,6.9,88,0.00,CLR,,0.00,WeatherDisplay:10.37,2013-03-18 06:06:00,
2013-03-18 02:07:00,41.4,38.1,29.98,NE,56,7.0,7.0,88,0.00,CLR,,0.00,WeatherDisplay:10.37,2013-03-18 06:07:00,
2013-03-18 02:10:00,41.5,38.2,29.98,NE,51,8.1,8.1,88,0.00,CLR,,0.00,WeatherDisplay:10.37,2013-03-18 06:10:00,
2013-03-18 02:11:00,41.5,38.2,29.98,East,88,8.1,8.1,88,0.00,CLR,,0.00,WeatherDisplay:10.37,2013-03-18 06:11:00,
2013-03-18 02:13:00,41.6,38.3,29.98,ESE,116,6.9,6.9,88,0.00,CLR,,0.00,WeatherDisplay:10.37,2013-03-18 06:13:00,
2013-03-18 02:15:00,41.6,38.3,29.98,East,86,3.0,7.0,88,0.00,CLR,,0.00,WeatherDisplay:10.37,2013-03-18 06:15:00,
2013-03-18 02:16:00,41.5,38.2,29.98,East,89,6.9,6.9,88,0.00,CLR,,0.00,WeatherDisplay:10.37,2013-03-18 06:16:00,
2013-03-18 02:17:00,41.5,38.2,29.98,East,84,6.9,6.9,88,0.00,CLR,,0.00,WeatherDisplay:10.37,2013-03-18 06:17:00,
2013-03-18 02:18:00,41.5,38.2,29.98,ESE,110,6.9,6.9,88,0.00,CLR,,0.00,WeatherDisplay:10.37,2013-03-18 06:18:00,
2013-03-18 02:21:00,41.5,37.9,29.98,East,80,5.8,5.8,87,0.00,CLR,,0.00,WeatherDisplay:10.37,2013-03-18 06:21:00,
2013-03-18 02:22:00,41.5,37.9,29.98,ESE,113,6.0,6.0,87,0.00,CLR,,0.00,WeatherDisplay:10.37,2013-03-18 06:22:00,
2013-03-18 02:23:00,41.4,37.8,29.98,ESE,110,5.8,5.8,87,0.00,CLR,,0.00,WeatherDisplay:10.37,2013-03-18 06:23:00,
2013-03-18 02:26:00,41.4,37.8,29.98,NE,52,8.1,8.1,87,0.00,CLR,,0.00,WeatherDisplay:10.37,2013-03-18 06:26:00,
2013-03-18 02:27:00,41.4,37.8,29.98,East,88,5.8,5.8,87,0.00,CLR,,0.00,WeatherDisplay:10.37,2013-03-18 06:27:00,
2013-03-18 02:28:00,41.4,37.8,29.98,East,80,6.0,6.0,87,0.00,CLR,,0.00,WeatherDisplay:10.37,2013-03-18 06:28:00,
2013-03-18 02:31:00,41.4,37.8,29.98,East,85,5.8,5.8,87,0.00,CLR,,0.00,WeatherDisplay:10.37,2013-03-18 06:31:00,
2013-03-18 02:32:00,41.3,37.7,29.98,ENE,60,6.0,6.0,87,0.00,CLR,,0.00,WeatherDisplay:10.37,2013-03-18 06:32:00,
2013-03-18 02:33:00,41.3,37.7,29.98,ESE,105,9.2,9.2,87,0.00,CLR,,0.00,WeatherDisplay:10.37,2013-03-18 06:33:00,
2013-03-18 02:34:00,41.3,37.7,29.98,NE,39,8.1,8.1,87,0.00,CLR,,0.00,WeatherDisplay:10.37,2013-03-18 06:34:00,
2013-03-18 02:37:00,41.1,37.5,29.98,ENE,73,5.8,5.8,87,0.00,CLR,,0.00,WeatherDisplay:10.37,2013-03-18 06:37:00,
2013-03-18 02:38:00,41.1,37.5,29.98,ESE,119,5.8,5.8,87,0.00,CLR,,0.00,WeatherDisplay:10.37,2013-03-18 06:38:00,
2013-03-18 02:39:00,41.1,37.5,29.98,East,90,5.8,5.8,87,0.00,CLR,,0.00,WeatherDisplay:10.37,2013-03-18 06:39:00,
2013-03-18 02:42:00,40.9,37.3,29.98,ENE,78,6.9,6.9,87,0.00,CLR,,0.00,WeatherDisplay:10.37,2013-03-18 06:42:00,
2013-03-18 02:43:00,40.9,37.3,29.98,East,85,4.6,4.6,87,0.00,CLR,,0.00,WeatherDisplay:10.37,2013-03-18 06:43:00,
2013-03-18 02:44:00,40.9,37.3,29.98,ENE,68,8.1,8.1,87,0.00,CLR,,0.00,WeatherDisplay:10.37,2013-03-18 06:44:00,
2013-03-18 02:47:00,40.9,37.3,29.98,East,99,6.9,6.9,87,0.00,CLR,,0.00,WeatherDisplay:10.37,2013-03-18 06:47:00,
2013-03-18 02:48:00,40.8,37.2,29.98,East,99,5.8,5.8,87,0.00,CLR,,0.00,WeatherDisplay:10.37,2013-03-18 06:48:00,
2013-03-18 02:49:00,40.8,37.2,29.98,SE,124,5.8,5.8,87,0.00,CLR,,0.00,WeatherDisplay:10.37,2013-03-18 06:49:00,
2013-03-18 02:50:00,40.8,37.2,29.98,East,91,5.0,8.0,87,0.00,CLR,,0.00,WeatherDisplay:10.37,2013-03-18 06:50:00,
2013-03-18 02:52:00,40.7,37.1,29.98,East,82,6.9,6.9,87,0.00,CLR,,0.00,WeatherDisplay:10.37,2013-03-18 06:52:00,
2013-03-18 02:54:00,40.6,37.3,29.98,ESE,109,5.8,5.8,88,0.00,CLR,,0.00,WeatherDisplay:10.37,2013-03-18 06:54:00,
2013-03-18 02:55:00,40.6,37.3,29.98,ESE,112,9.2,9.2,88,0.00,CLR,,0.00,WeatherDisplay:10.37,2013-03-18 06:55:00,
2013-03-18 02:57:00,40.5,37.2,29.98,ENE,69,5.0,5.0,88,0.00,CLR,,0.00,WeatherDisplay:10.37,2013-03-18 06:57:00,
2013-03-18 02:59:00,40.5,37.2,29.98,ENE,77,4.6,4.6,88,0.00,CLR,,0.00,WeatherDisplay:10.37,2013-03-18 06:59:00,
2013-03-18 03:00:00,40.5,37.2,29.98,East,89,3.5,3.5,88,0.00,CLR,,0.00,WeatherDisplay:10.37,2013-03-18 07:00:00,
2013-03-18 03:02:00,40.4,37.1,29.98,East,91,6.9,6.9,88,0.00,CLR,,0.00,WeatherDisplay:10.37,2013-03-18 07:02:00,
2013-03-18 03:04:00,40.4,37.1,29.98,East,79,7.0,7.0,88,0.00,CLR,,0.00,WeatherDisplay:10.37,2013-03-18 07:04:00,
2013-03-18 03:05:00,40.4,37.1,29.98,ENE,70,9.2,9.2,88,0.00,CLR,,0.00,WeatherDisplay:10.37,2013-03-18 07:05:00,
2013-03-18 03:08:00,40.4,37.1,29.98,East,84,8.1,8.1,88,0.00,CLR,,0.00,WeatherDisplay:10.37,2013-03-18 07:08:00,
2013-03-18 03:10:00,40.4,36.8,29.98,East,89,6.9,6.9,87,0.00,CLR,,0.00,WeatherDisplay:10.37,2013-03-18 07:10:00,
2013-03-18 03:11:00,40.4,36.8,29.98,SE,133,6.9,6.9,87,0.00,CLR,,0.00,WeatherDisplay:10.37,2013-03-18 07:11:00,
2013-03-18 03:13:00,40.4,36.8,29.98,NE,56,6.9,6.9,87,0.00,CLR,,0.00,WeatherDisplay:10.37,2013-03-18 07:13:00,
2013-03-18 03:15:00,40.3,36.7,29.98,ESE,110,5.0,5.0,87,0.00,CLR,,0.00,WeatherDisplay:10.37,2013-03-18 07:15:00,
2013-03-18 03:16:00,40.3,36.7,29.98,ESE,105,5.8,5.8,87,0.00,CLR,,0.00,WeatherDisplay:10.37,2013-03-18 07:16:00,
2013-03-18 03:18:00,40.3,36.7,29.98,ESE,106,10.0,10.0,87,0.00,CLR,,0.00,WeatherDisplay:10.37,2013-03-18 07:18:00,
2013-03-18 03:20:00,40.3,36.7,29.98,ENE,68,9.2,9.2,87,0.00,CLR,,0.00,WeatherDisplay:10.37,2013-03-18 07:20:00,
2013-03-18 03:22:00,40.3,36.7,29.99,East,82,10.4,10.4,87,0.00,CLR,,0.00,WeatherDisplay:10.37,2013-03-18 07:22:00,
2013-03-18 03:23:00,40.3,36.7,29.99,East,88,9.2,9.2,87,0.00,CLR,,0.00,WeatherDisplay:10.37,2013-03-18 07:23:00,
2013-03-18 03:25:00,40.3,36.7,29.99,East,87,8.1,8.1,87,0.00,CLR,,0.00,WeatherDisplay:10.37,2013-03-18 07:25:00,
2013-03-18 03:26:00,40.3,36.4,29.99,East,82,8.1,8.1,86,0.00,CLR,,0.00,WeatherDisplay:10.37,2013-03-18 07:26:00,
2013-03-18 03:28:00,40.3,36.4,29.99,ESE,103,8.1,8.1,86,0.00,CLR,,0.00,WeatherDisplay:10.37,2013-03-18 07:28:00,
2013-03-18 03:29:00,40.3,36.4,29.99,East,98,9.2,9.2,86,0.00,CLR,,0.00,WeatherDisplay:10.37,2013-03-18 07:29:00,
2013-03-18 03:30:00,40.2,36.3,29.99,East,92,6.0,6.0,86,0.00,CLR,,0.00,WeatherDisplay:10.37,2013-03-18 07:30:00,
2013-03-18 03:31:00,40.2,36.3,29.99,East,95,5.8,5.8,86,0.00,CLR,,0.00,WeatherDisplay:10.37,2013-03-18 07:31:00,
2013-03-18 03:33:00,40.1,36.2,29.99,ENE,77,8.1,8.1,86,0.00,CLR,,0.00,WeatherDisplay:10.37,2013-03-18 07:33:00,
2013-03-18 03:34:00,40.1,36.2,29.99,East,98,9.2,9.2,86,0.00,CLR,,0.00,WeatherDisplay:10.37,2013-03-18 07:34:00,
2013-03-18 03:35:00,40.1,36.2,29.98,East,101,9.2,9.2,86,0.00,CLR,,0.00,WeatherDisplay:10.37,2013-03-18 07:35:00,
2013-03-18 03:37:00,40.1,36.2,29.98,ESE,103,5.8,5.8,86,0.00,CLR,,0.00,WeatherDisplay:10.37,2013-03-18 07:37:00,
2013-03-18 03:39:00,40.0,36.2,29.98,East,89,8.1,8.1,86,0.00,CLR,,0.00,WeatherDisplay:10.37,2013-03-18 07:39:00,
2013-03-18 03:40:00,39.9,36.1,29.98,East,87,10.0,10.0,86,0.00,CLR,,0.00,WeatherDisplay:10.37,2013-03-18 07:40:00,
2013-03-18 03:42:00,39.9,36.1,29.98,East,87,10.4,10.4,86,0.00,CLR,,0.00,WeatherDisplay:10.37,2013-03-18 07:42:00,
2013-03-18 03:44:00,39.9,36.1,29.98,East,89,11.5,11.5,86,0.00,CLR,,0.00,WeatherDisplay:10.37,2013-03-18 07:44:00,
2013-03-18 03:45:00,39.9,36.0,29.98,East,95,6.0,12.0,86,0.00,CLR,,0.00,WeatherDisplay:10.37,2013-03-18 07:45:00,
2013-03-18 03:46:00,39.8,36.0,29.98,ENE,68,9.0,9.0,86,0.00,CLR,,0.00,WeatherDisplay:10.37,2013-03-18 07:46:00,
2013-03-18 03:47:00,39.7,35.9,29.98,ENE,78,9.2,9.2,86,0.00,CLR,,0.00,WeatherDisplay:10.37,2013-03-18 07:47:00,
2013-03-18 03:49:00,39.7,36.1,29.98,ENE,68,5.8,5.8,87,0.00,CLR,,0.00,WeatherDisplay:10.37,2013-03-18 07:49:00,
2013-03-18 03:50:00,39.7,36.1,29.98,East,91,5.0,9.0,87,0.00,CLR,,0.00,WeatherDisplay:10.37,2013-03-18 07:50:00,
2013-03-18 03:51:00,39.6,36.0,29.98,East,98,10.4,10.4,87,0.00,CLR,,0.00,WeatherDisplay:10.37,2013-03-18 07:51:00,
2013-03-18 03:53:00,39.6,36.0,29.98,East,98,11.5,11.5,87,0.00,CLR,,0.00,WeatherDisplay:10.37,2013-03-18 07:53:00,
2013-03-18 03:54:00,39.6,36.0,29.98,East,85,9.2,9.2,87,0.00,CLR,,0.00,WeatherDisplay:10.37,2013-03-18 07:54:00,
2013-03-18 03:55:00,39.6,36.0,29.98,East,91,6.0,12.0,87,0.00,CLR,,0.00,WeatherDisplay:10.37,2013-03-18 07:55:00,
2013-03-18 03:57:00,39.6,36.0,29.98,East,99,9.2,9.2,87,0.00,CLR,,0.00,WeatherDisplay:10.37,2013-03-18 07:57:00,
2013-03-18 03:58:00,39.5,36.0,29.98,East,94,5.8,5.8,87,0.00,CLR,,0.00,WeatherDisplay:10.37,2013-03-18 07:58:00,
2013-03-18 03:59:00,39.5,36.0,29.98,East,82,6.9,6.9,87,0.00,CLR,,0.00,WeatherDisplay:10.37,2013-03-18 07:59:00,
2013-03-18 04:00:00,39.5,36.0,29.98,ENE,63,6.9,6.9,87,0.00,CLR,,0.00,WeatherDisplay:10.37,2013-03-18 08:00:00,
2013-03-18 04:02:00,39.5,36.0,29.99,East,99,5.8,5.8,87,0.00,CLR,,0.00,WeatherDisplay:10.37,2013-03-18 08:02:00,
2013-03-18 04:03:00,39.5,36.0,29.99,ESE,109,5.8,5.8,87,0.00,CLR,,0.00,WeatherDisplay:10.37,2013-03-18 08:03:00,
2013-03-18 04:04:00,39.5,36.0,29.99,ENE,74,6.9,6.9,87,0.00,CLR,,0.00,WeatherDisplay:10.37,2013-03-18 08:04:00,
2013-03-18 04:05:00,39.5,36.0,29.98,East,81,5.8,5.8,87,0.00,CLR,,0.00,WeatherDisplay:10.37,2013-03-18 08:05:00,
2013-03-18 04:07:00,39.5,36.0,29.98,East,82,8.1,8.1,87,0.00,CLR,,0.00,WeatherDisplay:10.37,2013-03-18 08:07:00,
2013-03-18 04:09:00,39.5,36.0,29.98,ESE,108,6.9,6.9,87,0.00,CLR,,0.00,WeatherDisplay:10.37,2013-03-18 08:09:00,
2013-03-18 04:10:00,39.4,35.9,29.98,East,79,6.9,6.9,87,0.00,CLR,,0.00,WeatherDisplay:10.37,2013-03-18 08:10:00,
2013-03-18 04:12:00,39.4,35.9,29.98,East,88,8.1,8.1,87,0.00,CLR,,0.00,WeatherDisplay:10.37,2013-03-18 08:12:00,
2013-03-18 04:14:00,39.4,35.9,29.98,East,90,6.9,6.9,87,0.00,CLR,,0.00,WeatherDisplay:10.37,2013-03-18 08:14:00,
2013-03-18 04:15:00,39.4,35.9,29.98,East,89,5.8,5.8,87,0.00,CLR,,0.00,WeatherDisplay:10.37,2013-03-18 08:15:00,
2013-03-18 04:16:00,39.4,35.9,29.98,East,89,5.8,5.8,87,0.00,CLR,,0.00,WeatherDisplay:10.37,2013-03-18 08:16:00,
2013-03-18 04:17:00,39.3,35.8,29.98,East,87,5.8,5.8,87,0.00,CLR,,0.00,WeatherDisplay:10.37,2013-03-18 08:17:00,
2013-03-18 04:19:00,39.3,35.8,29.98,East,92,8.1,8.1,87,0.00,CLR,,0.00,WeatherDisplay:10.37,2013-03-18 08:19:00,
2013-03-18 04:20:00,39.3,35.8,29.98,East,85,6.9,6.9,87,0.00,CLR,,0.00,WeatherDisplay:10.37,2013-03-18 08:20:00,
2013-03-18 04:21:00,39.3,35.8,29.98,East,87,6.9,6.9,87,0.00,CLR,,0.00,WeatherDisplay:10.37,2013-03-18 08:21:00,
2013-03-18 04:22:00,39.3,35.8,29.98,NE,56,6.9,6.9,87,0.00,CLR,,0.00,WeatherDisplay:10.37,2013-03-18 08:22:00,
2013-03-18 04:24:00,39.2,35.7,29.98,East,99,5.8,5.8,87,0.00,CLR,,0.00,WeatherDisplay:10.37,2013-03-18 08:24:00,
2013-03-18 04:25:00,39.2,35.7,29.98,East,96,5.8,5.8,87,0.00,CLR,,0.00,WeatherDisplay:10.37,2013-03-18 08:25:00,
2013-03-18 04:26:00,39.3,35.8,29.98,East,81,5.0,5.0,87,0.00,CLR,,0.00,WeatherDisplay:10.37,2013-03-18 08:26:00,
2013-03-18 04:27:00,39.3,35.8,29.98,ENE,78,8.0,8.0,87,0.00,CLR,,0.00,WeatherDisplay:10.37,2013-03-18 08:27:00,
2013-03-18 04:29:00,39.3,35.8,29.98,East,89,6.9,6.9,87,0.00,CLR,,0.00,WeatherDisplay:10.37,2013-03-18 08:29:00,
2013-03-18 04:30:00,39.3,35.8,29.98,East,81,9.2,9.2,87,0.00,CLR,,0.00,WeatherDisplay:10.37,2013-03-18 08:30:00,
2013-03-18 04:31:00,39.3,35.8,29.98,East,100,5.8,5.8,87,0.00,CLR,,0.00,WeatherDisplay:10.37,2013-03-18 08:31:00,
2013-03-18 04:33:00,39.3,35.8,29.98,ENE,68,10.4,10.4,87,0.00,CLR,,0.00,WeatherDisplay:10.37,2013-03-18 08:33:00,
2013-03-18 04:34:00,39.3,35.8,29.98,East,87,5.8,5.8,87,0.00,CLR,,0.00,WeatherDisplay:10.37,2013-03-18 08:34:00,
2013-03-18 04:36:00,39.3,35.8,29.98,East,94,4.6,4.6,87,0.00,CLR,,0.00,WeatherDisplay:10.37,2013-03-18 08:36:00,
2013-03-18 04:37:00,39.3,35.8,29.98,East,91,6.9,6.9,87,0.00,CLR,,0.00,WeatherDisplay:10.37,2013-03-18 08:37:00,
2013-03-18 04:38:00,39.3,35.8,29.98,East,85,6.9,6.9,87,0.00,CLR,,0.00,WeatherDisplay:10.37,2013-03-18 08:38:00,
2013-03-18 04:39:00,39.3,35.8,29.98,SE,131,5.8,5.8,87,0.00,CLR,,0.00,WeatherDisplay:10.37,2013-03-18 08:39:00,
2013-03-18 04:42:00,39.2,35.7,29.97,East,88,8.1,8.1,87,0.00,CLR,,0.00,WeatherDisplay:10.37,2013-03-18 08:42:00,
2013-03-18 04:43:00,39.2,35.7,29.98,East,101,6.9,6.9,87,0.00,CLR,,0.00,WeatherDisplay:10.37,2013-03-18 08:43:00,
2013-03-18 04:45:00,39.2,35.7,29.98,East,95,9.2,9.2,87,0.00,CLR,,0.00,WeatherDisplay:10.37,2013-03-18 08:45:00,
2013-03-18 04:47:00,39.1,35.6,29.98,ESE,116,8.1,8.1,87,0.00,CLR,,0.00,WeatherDisplay:10.37,2013-03-18 08:47:00,
2013-03-18 04:48:00,39.1,35.6,29.98,East,91,6.9,6.9,87,0.00,CLR,,0.00,WeatherDisplay:10.37,2013-03-18 08:48:00,
2013-03-18 04:50:00,39.0,35.5,29.98,ENE,65,5.8,5.8,87,0.00,CLR,,0.00,WeatherDisplay:10.37,2013-03-18 08:50:00,
2013-03-18 04:52:00,39.0,35.5,29.98,East,84,7.0,7.0,87,0.00,CLR,,0.00,WeatherDisplay:10.37,2013-03-18 08:52:00,
2013-03-18 04:53:00,39.0,35.5,29.98,ESE,116,6.9,6.9,87,0.00,CLR,,0.00,WeatherDisplay:10.37,2013-03-18 08:53:00,
2013-03-18 04:55:00,38.9,35.4,29.98,East,84,4.6,4.6,87,0.00,CLR,,0.00,WeatherDisplay:10.37,2013-03-18 08:55:00,
2013-03-18 04:57:00,38.9,35.4,29.98,East,97,6.9,6.9,87,0.00,CLR,,0.00,WeatherDisplay:10.37,2013-03-18 08:57:00,
2013-03-18 04:58:00,38.9,35.4,29.98,East,96,5.8,5.8,87,0.00,CLR,,0.00,WeatherDisplay:10.37,2013-03-18 08:58:00,
2013-03-18 05:00:00,38.8,35.3,29.97,ESE,102,4.0,4.0,87,0.00,CLR,,0.00,WeatherDisplay:10.37,2013-03-18 09:00:00,
2013-03-18 05:03:00,38.7,35.2,29.97,ESE,113,6.9,6.9,87,0.00,CLR,,0.00,WeatherDisplay:10.37,2013-03-18 09:03:00,
2013-03-18 05:04:00,38.7,35.2,29.97,ENE,73,6.9,6.9,87,0.00,CLR,,0.00,WeatherDisplay:10.37,2013-03-18 09:04:00,
2013-03-18 05:05:00,38.6,35.1,29.97,East,96,6.9,6.9,87,0.00,CLR,,0.00,WeatherDisplay:10.37,2013-03-18 09:05:00,
2013-03-18 05:08:00,38.5,35.0,29.97,East,85,9.2,9.2,87,0.00,CLR,,0.00,WeatherDisplay:10.37,2013-03-18 09:08:00,
2013-03-18 05:09:00,38.5,35.0,29.97,East,91,8.1,8.1,87,0.00,CLR,,0.00,WeatherDisplay:10.37,2013-03-18 09:09:00,
2013-03-18 05:10:00,38.5,35.0,29.97,SE,136,5.8,5.8,87,0.00,CLR,,0.00,WeatherDisplay:10.37,2013-03-18 09:10:00,
2013-03-18 05:13:00,38.3,34.8,29.98,ENE,78,6.9,6.9,87,0.00,CLR,,0.00,WeatherDisplay:10.37,2013-03-18 09:13:00,
2013-03-18 05:14:00,38.3,34.8,29.98,East,80,7.0,7.0,87,0.00,CLR,,0.00,WeatherDisplay:10.37,2013-03-18 09:14:00,
2013-03-18 05:16:00,38.3,35.1,29.98,East,90,6.9,6.9,88,0.00,CLR,,0.00,WeatherDisplay:10.37,2013-03-18 09:16:00,
2013-03-18 05:18:00,38.2,35.0,29.98,East,82,5.8,5.8,88,0.00,CLR,,0.00,WeatherDisplay:10.37,2013-03-18 09:18:00,
2013-03-18 05:19:00,38.2,35.0,29.98,East,79,4.6,4.6,88,0.00,CLR,,0.00,WeatherDisplay:10.37,2013-03-18 09:19:00,
2013-03-18 05:22:00,38.1,34.9,29.98,ESE,122,4.6,4.6,88,0.00,CLR,,0.00,WeatherDisplay:10.37,2013-03-18 09:22:00,
2013-03-18 05:23:00,38.1,34.9,29.98,ENE,78,6.0,6.0,88,0.00,CLR,,0.00,WeatherDisplay:10.37,2013-03-18 09:23:00,
2013-03-18 05:24:00,38.1,34.9,29.98,NNE,22,6.9,6.9,88,0.00,CLR,,0.00,WeatherDisplay:10.37,2013-03-18 09:24:00,
2013-03-18 05:27:00,38.1,34.9,29.98,East,80,8.1,8.1,88,0.00,CLR,,0.00,WeatherDisplay:10.37,2013-03-18 09:27:00,
2013-03-18 05:29:00,38.1,34.9,29.97,East,91,6.9,6.9,88,0.00,CLR,,0.00,WeatherDisplay:10.37,2013-03-18 09:29:00,
2013-03-18 05:32:00,38.0,34.8,29.97,SSE,151,5.8,5.8,88,0.00,CLR,,0.00,WeatherDisplay:10.37,2013-03-18 09:32:00,
2013-03-18 05:34:00,37.9,34.7,29.97,ESE,116,5.8,5.8,88,0.00,CLR,,0.00,WeatherDisplay:10.37,2013-03-18 09:34:00,
2013-03-18 05:35:00,37.9,34.7,29.97,ESE,105,5.8,5.8,88,0.00,CLR,,0.00,WeatherDisplay:10.37,2013-03-18 09:35:00,
2013-03-18 05:37:00,37.8,34.6,29.97,East,82,10.4,10.4,88,0.00,CLR,,0.00,WeatherDisplay:10.37,2013-03-18 09:37:00,
2013-03-18 05:39:00,37.7,34.5,29.97,ESE,109,8.1,8.1,88,0.00,CLR,,0.00,WeatherDisplay:10.37,2013-03-18 09:39:00,
2013-03-18 05:40:00,37.7,34.5,29.97,East,99,5.8,5.8,88,0.00,CLR,,0.00,WeatherDisplay:10.37,2013-03-18 09:40:00,
2013-03-18 05:43:00,37.7,34.5,29.96,ESE,103,9.2,9.2,88,0.00,CLR,,0.00,WeatherDisplay:10.37,2013-03-18 09:43:00,
2013-03-18 05:44:00,37.7,34.5,29.96,ENE,60,11.5,11.5,88,0.00,CLR,,0.00,WeatherDisplay:10.37,2013-03-18 09:44:00,
2013-03-18 05:45:00,37.7,34.5,29.96,SSW,212,10.4,10.4,88,0.00,CLR,,0.00,WeatherDisplay:10.37,2013-03-18 09:45:00,
2013-03-18 05:48:00,37.6,34.4,29.95,East,80,11.0,11.0,88,0.00,CLR,,0.00,WeatherDisplay:10.37,2013-03-18 09:48:00,
2013-03-18 05:49:00,37.6,34.4,29.96,ENE,78,11.5,11.5,88,0.00,CLR,,0.00,WeatherDisplay:10.37,2013-03-18 09:49:00,
2013-03-18 05:50:00,37.6,34.4,29.96,ESE,120,10.4,10.4,88,0.00,CLR,,0.00,WeatherDisplay:10.37,2013-03-18 09:50:00,
2013-03-18 05:51:00,37.6,34.4,29.96,East,89,10.4,10.4,88,0.00,CLR,,0.00,WeatherDisplay:10.37,2013-03-18 09:51:00,
2013-03-18 05:53:00,37.5,34.3,29.96,East,91,5.8,5.8,88,0.00,CLR,,0.00,WeatherDisplay:10.37,2013-03-18 09:53:00,
2013-03-18 05:55:00,37.5,34.3,29.97,East,88,6.9,6.9,88,0.00,CLR,,0.00,WeatherDisplay:10.37,2013-03-18 09:55:00,
2013-03-18 05:56:00,37.6,34.4,29.97,NE,56,6.9,6.9,88,0.00,CLR,,0.00,WeatherDisplay:10.37,2013-03-18 09:56:00,
2013-03-18 05:59:00,37.7,34.5,29.97,East,98,6.9,6.9,88,0.00,CLR,,0.00,WeatherDisplay:10.37,2013-03-18 09:59:00,
2013-03-18 06:00:00,37.7,34.5,29.97,East,99,6.0,6.0,88,0.00,CLR,,0.00,WeatherDisplay:10.37,2013-03-18 10:00:00,
2013-03-18 06:01:00,37.8,34.6,29.97,ENE,69,4.6,5.8,88,0.00,CLR,,0.00,WeatherDisplay:10.37,2013-03-18 10:01:00,
2013-03-18 06:04:00,37.9,34.7,29.97,ESE,108,9.2,9.2,88,0.00,CLR,,0.00,WeatherDisplay:10.37,2013-03-18 10:04:00,
2013-03-18 06:05:00,37.9,34.7,29.97,East,96,9.2,9.2,88,0.00,CLR,,0.00,WeatherDisplay:10.37,2013-03-18 10:05:00,
2013-03-18 06:06:00,37.9,34.4,29.97,East,91,8.1,8.1,87,0.00,CLR,,0.00,WeatherDisplay:10.37,2013-03-18 10:06:00,
2013-03-18 06:10:00,37.9,34.7,29.97,East,101,6.9,6.9,88,0.00,CLR,,0.00,WeatherDisplay:10.37,2013-03-18 10:10:00,
2013-03-18 06:11:00,37.9,34.7,29.97,East,89,8.1,8.1,88,0.00,CLR,,0.00,WeatherDisplay:10.37,2013-03-18 10:11:00,
2013-03-18 06:15:00,37.9,34.4,29.98,East,81,6.0,6.0,87,0.00,CLR,,0.00,WeatherDisplay:10.37,2013-03-18 10:15:00,
2013-03-18 06:16:00,37.9,34.4,29.98,ESE,102,5.8,5.8,87,0.00,CLR,,0.00,WeatherDisplay:10.37,2013-03-18 10:16:00,
2013-03-18 06:20:00,37.8,34.3,29.97,East,80,5.8,5.8,87,0.00,CLR,,0.00,WeatherDisplay:10.37,2013-03-18 10:20:00,
2013-03-18 06:21:00,37.8,34.3,29.97,ESE,108,8.1,8.1,87,0.00,CLR,,0.00,WeatherDisplay:10.37,2013-03-18 10:21:00,
2013-03-18 06:25:00,37.7,34.5,29.97,ENE,72,10.4,10.4,88,0.00,CLR,,0.00,WeatherDisplay:10.37,2013-03-18 10:25:00,
2013-03-18 06:26:00,37.7,34.5,29.97,East,85,10.4,10.4,88,0.00,CLR,,0.00,WeatherDisplay:10.37,2013-03-18 10:26:00,
2013-03-18 06:28:00,37.7,34.5,29.97,ESE,112,9.2,9.2,88,0.00,CLR,,0.00,WeatherDisplay:10.37,2013-03-18 10:28:00,
2013-03-18 06:31:00,37.7,34.5,29.97,SE,132,8.1,8.1,88,0.00,CLR,,0.00,WeatherDisplay:10.37,2013-03-18 10:31:00,
2013-03-18 06:32:00,37.7,34.5,29.97,East,96,9.2,9.2,88,0.00,CLR,,0.00,WeatherDisplay:10.37,2013-03-18 10:32:00,
2013-03-18 06:33:00,37.7,34.5,29.97,East,88,9.2,9.2,88,0.00,CLR,,0.00,WeatherDisplay:10.37,2013-03-18 10:33:00,
2013-03-18 06:36:00,37.7,34.5,29.96,SE,125,8.1,8.1,88,0.00,CLR,,0.00,WeatherDisplay:10.37,2013-03-18 10:36:00,
2013-03-18 06:37:00,37.7,34.5,29.97,ESE,108,9.2,9.2,88,0.00,CLR,,0.00,WeatherDisplay:10.37,2013-03-18 10:37:00,
2013-03-18 06:38:00,37.7,34.5,29.97,East,89,9.2,9.2,88,0.00,CLR,,0.00,WeatherDisplay:10.37,2013-03-18 10:38:00,
2013-03-18 06:41:00,37.6,34.4,29.97,ENE,78,7.0,7.0,88,0.00,CLR,,0.00,WeatherDisplay:10.37,2013-03-18 10:41:00,
2013-03-18 06:42:00,37.6,34.4,29.96,ENE,77,6.9,6.9,88,0.00,CLR,,0.00,WeatherDisplay:10.37,2013-03-18 10:42:00,
2013-03-18 06:43:00,37.6,34.4,29.97,East,87,8.1,8.1,88,0.00,CLR,,0.00,WeatherDisplay:10.37,2013-03-18 10:43:00,
2013-03-18 06:47:00,37.6,34.4,29.97,ESE,103,9.2,9.2,88,0.00,CLR,,0.00,WeatherDisplay:10.37,2013-03-18 10:47:00,
2013-03-18 06:48:00,37.5,34.3,29.97,ENE,73,6.0,6.0,88,0.00,CLR,,0.00,WeatherDisplay:10.37,2013-03-18 10:48:00,
2013-03-18 06:52:00,37.4,34.2,29.97,East,89,5.8,5.8,88,0.00,CLR,,0.00,WeatherDisplay:10.37,2013-03-18 10:52:00,
2013-03-18 06:53:00,37.5,34.3,29.97,NE,47,10.4,10.4,88,0.00,CLR,,0.00,WeatherDisplay:10.37,2013-03-18 10:53:00,
2013-03-18 06:57:00,37.5,34.3,29.97,East,90,10.4,10.4,88,0.00,CLR,,0.00,WeatherDisplay:10.37,2013-03-18 10:57:00,
2013-03-18 06:58:00,37.5,34.3,29.97,NE,47,10.4,10.4,88,0.00,CLR,,0.00,WeatherDisplay:10.37,2013-03-18 10:58:00,
2013-03-18 06:59:00,37.5,34.3,29.97,East,80,8.1,8.1,88,0.00,CLR,,0.00,WeatherDisplay:10.37,2013-03-18 10:59:00,
2013-03-18 07:02:00,37.5,34.3,29.97,East,91,6.9,6.9,88,0.00,CLR,,0.00,WeatherDisplay:10.37,2013-03-18 11:02:00,
2013-03-18 07:03:00,37.5,34.3,29.97,ESE,110,6.9,6.9,88,0.00,CLR,,0.00,WeatherDisplay:10.37,2013-03-18 11:03:00,
2013-03-18 07:04:00,37.5,34.3,29.97,East,87,5.8,5.8,88,0.00,CLR,,0.00,WeatherDisplay:10.37,2013-03-18 11:04:00,
2013-03-18 07:07:00,37.5,34.3,29.96,ESE,114,6.0,6.0,88,0.00,CLR,,0.00,WeatherDisplay:10.37,2013-03-18 11:07:00,
2013-03-18 07:08:00,37.5,34.3,29.96,East,94,5.8,5.8,88,0.00,CLR,,0.00,WeatherDisplay:10.37,2013-03-18 11:08:00,
2013-03-18 07:09:00,37.4,34.2,29.96,ESE,112,8.1,8.1,88,0.00,CLR,,0.00,WeatherDisplay:10.37,2013-03-18 11:09:00,
2013-03-18 07:13:00,37.3,34.1,29.96,ENE,78,5.8,5.8,88,0.00,CLR,,0.00,WeatherDisplay:10.37,2013-03-18 11:13:00,
2013-03-18 07:14:00,37.3,34.1,29.96,East,99,6.0,6.0,88,0.00,CLR,,0.00,WeatherDisplay:10.37,2013-03-18 11:14:00,
2013-03-18 07:15:00,37.3,34.1,29.96,ENE,75,5.0,5.0,88,0.00,CLR,,0.00,WeatherDisplay:10.37,2013-03-18 11:15:00,
2013-03-18 07:18:00,37.2,34.0,29.96,East,80,4.6,4.6,88,0.00,CLR,,0.00,WeatherDisplay:10.37,2013-03-18 11:18:00,
2013-03-18 07:20:00,37.2,34.0,29.96,East,97,5.0,7.0,88,0.00,CLR,,0.00,WeatherDisplay:10.37,2013-03-18 11:20:00,
2013-03-18 07:23:00,37.1,34.2,29.96,East,87,6.9,6.9,89,0.00,CLR,,0.00,WeatherDisplay:10.37,2013-03-18 11:23:00,
2013-03-18 07:25:00,37.1,34.2,29.96,SE,139,7.0,7.0,89,0.00,CLR,,0.00,WeatherDisplay:10.37,2013-03-18 11:25:00,
2013-03-18 07:28:00,37.0,34.1,29.96,East,96,4.6,4.6,89,0.00,CLR,,0.00,WeatherDisplay:10.37,2013-03-18 11:28:00,
2013-03-18 07:29:00,37.0,34.1,29.96,East,87,4.6,4.6,89,0.00,CLR,,0.00,WeatherDisplay:10.37,2013-03-18 11:29:00,
2013-03-18 07:30:00,37.0,34.1,29.96,ESE,105,8.1,8.1,89,0.00,CLR,,0.00,WeatherDisplay:10.37,2013-03-18 11:30:00,
2013-03-18 07:33:00,37.2,34.3,29.96,East,92,9.2,9.2,89,0.00,CLR,,0.00,WeatherDisplay:10.37,2013-03-18 11:33:00,
2013-03-18 07:34:00,37.2,34.3,29.96,East,96,5.0,5.0,89,0.00,CLR,,0.00,WeatherDisplay:10.37,2013-03-18 11:34:00,
2013-03-18 07:35:00,37.2,34.3,29.96,East,100,8.1,8.1,89,0.00,CLR,,0.00,WeatherDisplay:10.37,2013-03-18 11:35:00,
2013-03-18 07:38:00,37.2,34.3,29.96,East,88,8.1,8.1,89,0.00,CLR,,0.00,WeatherDisplay:10.37,2013-03-18 11:38:00,
2013-03-18 07:39:00,37.2,34.3,29.96,East,82,6.9,6.9,89,0.00,CLR,,0.00,WeatherDisplay:10.37,2013-03-18 11:39:00,
2013-03-18 07:40:00,37.2,34.3,29.96,East,92,6.9,6.9,89,0.00,CLR,,0.00,WeatherDisplay:10.37,2013-03-18 11:40:00,
2013-03-18 07:41:00,37.2,34.3,29.96,ESE,106,6.0,6.0,89,0.00,CLR,,0.00,WeatherDisplay:10.37,2013-03-18 11:41:00,
2013-03-18 07:43:00,37.2,34.3,29.96,SE,132,11.5,11.5,89,0.00,CLR,,0.00,WeatherDisplay:10.37,2013-03-18 11:43:00,
2013-03-18 07:45:00,37.2,34.3,29.96,East,94,8.0,8.0,89,0.00,CLR,,0.00,WeatherDisplay:10.37,2013-03-18 11:45:00,
2013-03-18 07:46:00,37.3,34.4,29.96,East,101,10.4,10.4,89,0.00,CLR,,0.00,WeatherDisplay:10.37,2013-03-18 11:46:00,
2013-03-18 07:49:00,37.3,34.4,29.97,East,99,10.4,10.4,89,0.00,CLR,,0.00,WeatherDisplay:10.37,2013-03-18 11:49:00,
2013-03-18 07:50:00,37.3,34.4,29.97,East,87,6.9,6.9,89,0.00,CLR,,0.00,WeatherDisplay:10.37,2013-03-18 11:50:00,
2013-03-18 07:51:00,37.3,34.4,29.97,ESE,106,9.2,9.2,89,0.00,CLR,,0.00,WeatherDisplay:10.37,2013-03-18 11:51:00,
2013-03-18 07:53:00,37.3,34.4,29.97,East,90,6.9,6.9,89,0.00,CLR,,0.00,WeatherDisplay:10.37,2013-03-18 11:53:00,
2013-03-18 07:54:00,37.3,34.4,29.97,East,94,6.9,6.9,89,0.00,CLR,,0.00,WeatherDisplay:10.37,2013-03-18 11:54:00,
2013-03-18 07:55:00,37.3,34.4,29.97,ESE,105,6.9,6.9,89,0.00,CLR,,0.00,WeatherDisplay:10.37,2013-03-18 11:55:00,
2013-03-18 07:57:00,37.5,34.6,29.97,ENE,70,5.8,5.8,89,0.00,CLR,,0.00,WeatherDisplay:10.37,2013-03-18 11:57:00,
2013-03-18 07:58:00,37.5,34.6,29.97,ESE,112,4.6,4.6,89,0.00,CLR,,0.00,WeatherDisplay:10.37,2013-03-18 11:58:00,
2013-03-18 07:59:00,37.6,34.4,29.97,East,100,8.1,8.1,88,0.00,CLR,,0.00,WeatherDisplay:10.37,2013-03-18 11:59:00,
2013-03-18 08:00:00,37.6,34.4,29.96,SE,146,6.9,6.9,88,0.00,CLR,,0.00,WeatherDisplay:10.37,2013-03-18 12:00:00,
2013-03-18 08:02:00,37.7,34.5,29.96,SE,127,10.4,10.4,88,0.00,CLR,,0.00,WeatherDisplay:10.37,2013-03-18 12:02:00,
2013-03-18 08:03:00,37.7,34.5,29.96,ESE,106,8.0,8.0,88,0.00,CLR,,0.00,WeatherDisplay:10.37,2013-03-18 12:03:00,
2013-03-18 08:04:00,37.7,34.5,29.96,ESE,116,9.2,9.2,88,0.00,CLR,,0.00,WeatherDisplay:10.37,2013-03-18 12:04:00,
2013-03-18 08:05:00,37.8,34.6,29.96,East,84,5.8,5.8,88,0.00,CLR,,0.00,WeatherDisplay:10.37,2013-03-18 12:05:00,
2013-03-18 08:08:00,37.9,34.7,29.97,ESE,116,5.8,5.8,88,0.00,CLR,,0.00,WeatherDisplay:10.37,2013-03-18 12:08:00,
2013-03-18 08:09:00,37.9,34.7,29.97,East,81,3.5,3.5,88,0.00,CLR,,0.00,WeatherDisplay:10.37,2013-03-18 12:09:00,
2013-03-18 08:11:00,38.0,34.8,29.96,East,99,8.1,8.1,88,0.00,CLR,,0.00,WeatherDisplay:10.37,2013-03-18 12:11:00,
2013-03-18 08:13:00,38.2,35.0,29.96,East,96,10.0,10.0,88,0.00,CLR,,0.00,WeatherDisplay:10.37,2013-03-18 12:13:00,
2013-03-18 08:15:00,38.3,35.1,29.96,East,80,11.5,11.5,88,0.00,CLR,,0.00,WeatherDisplay:10.37,2013-03-18 12:15:00,
2013-03-18 08:16:00,38.5,35.0,29.96,NE,46,8.1,8.1,87,0.00,CLR,,0.00,WeatherDisplay:10.37,2013-03-18 12:16:00,
2013-03-18 08:18:00,38.6,35.1,29.96,East,95,6.9,6.9,87,0.00,CLR,,0.00,WeatherDisplay:10.37,2013-03-18 12:18:00,
2013-03-18 08:20:00,38.7,35.2,29.96,East,80,6.9,6.9,87,0.00,CLR,,0.00,WeatherDisplay:10.37,2013-03-18 12:20:00,
2013-03-18 08:22:00,38.8,35.3,29.96,East,88,8.1,8.1,87,0.00,CLR,,0.00,WeatherDisplay:10.37,2013-03-18 12:22:00,
2013-03-18 08:24:00,38.9,35.4,29.96,ENE,63,6.9,6.9,87,0.00,CLR,,0.00,WeatherDisplay:10.37,2013-03-18 12:24:00,
2013-03-18 08:25:00,38.9,35.4,29.95,East,96,3.5,3.5,87,0.00,CLR,,0.00,WeatherDisplay:10.37,2013-03-18 12:25:00,
2013-03-18 08:27:00,39.0,35.5,29.95,East,98,5.8,5.8,87,0.00,CLR,,0.00,WeatherDisplay:10.37,2013-03-18 12:27:00,
2013-03-18 08:29:00,39.2,35.7,29.95,East,101,7.0,7.0,87,0.00,CLR,,0.00,WeatherDisplay:10.37,2013-03-18 12:29:00,
2013-03-18 08:30:00,39.3,35.8,29.95,East,85,9.2,9.2,87,0.00,CLR,,0.00,WeatherDisplay:10.37,2013-03-18 12:30:00,
2013-03-18 08:32:00,39.5,36.0,29.95,East,98,10.4,10.4,87,0.00,CLR,,0.00,WeatherDisplay:10.37,2013-03-18 12:32:00,
2013-03-18 08:34:00,39.7,35.9,29.95,ENE,58,10.4,10.4,86,0.00,CLR,,0.00,WeatherDisplay:10.37,2013-03-18 12:34:00,
2013-03-18 08:35:00,39.8,36.0,29.95,East,89,9.2,9.2,86,0.00,CLR,,0.00,WeatherDisplay:10.37,2013-03-18 12:35:00,
2013-03-18 08:38:00,40.0,36.2,29.95,East,96,8.1,8.1,86,0.00,CLR,,0.00,WeatherDisplay:10.37,2013-03-18 12:38:00,
2013-03-18 08:39:00,40.1,36.0,29.95,ENE,68,6.9,6.9,85,0.00,CLR,,0.00,WeatherDisplay:10.37,2013-03-18 12:39:00,
2013-03-18 08:40:00,40.2,36.1,29.95,ENE,61,8.0,8.0,85,0.00,CLR,,0.00,WeatherDisplay:10.37,2013-03-18 12:40:00,
2013-03-18 08:41:00,40.2,36.1,29.95,East,83,9.2,9.2,85,0.00,CLR,,0.00,WeatherDisplay:10.37,2013-03-18 12:41:00,
2013-03-18 08:43:00,40.3,36.1,29.95,East,98,6.0,6.0,85,0.00,CLR,,0.00,WeatherDisplay:10.37,2013-03-18 12:43:00,
2013-03-18 08:44:00,40.4,36.2,29.95,East,89,8.1,8.1,85,0.00,CLR,,0.00,WeatherDisplay:10.37,2013-03-18 12:44:00,
2013-03-18 08:45:00,40.4,36.2,29.95,East,93,7.0,7.0,85,0.00,CLR,,0.00,WeatherDisplay:10.37,2013-03-18 12:45:00,
2013-03-18 08:47:00,40.5,36.3,29.95,ENE,73,10.4,10.4,85,0.00,CLR,,0.00,WeatherDisplay:10.37,2013-03-18 12:47:00,
2013-03-18 08:49:00,40.6,36.4,29.94,East,80,9.2,9.2,85,0.00,CLR,,0.00,WeatherDisplay:10.37,2013-03-18 12:49:00,
2013-03-18 08:50:00,40.7,36.5,29.94,East,88,10.4,10.4,85,0.00,CLR,,0.00,WeatherDisplay:10.37,2013-03-18 12:50:00,
2013-03-18 08:52:00,40.8,36.6,29.94,ESE,103,7.0,7.0,85,0.00,CLR,,0.00,WeatherDisplay:10.37,2013-03-18 12:52:00,
2013-03-18 08:54:00,41.0,36.5,29.94,East,92,11.5,11.5,84,0.00,CLR,,0.00,WeatherDisplay:10.37,2013-03-18 12:54:00,
2013-03-18 08:55:00,41.1,36.6,29.94,East,81,8.1,8.1,84,0.00,CLR,,0.00,WeatherDisplay:10.37,2013-03-18 12:55:00,
2013-03-18 08:57:00,41.2,36.7,29.94,East,99,10.4,10.4,84,0.00,CLR,,0.00,WeatherDisplay:10.37,2013-03-18 12:57:00,
2013-03-18 08:59:00,41.4,36.9,29.94,ENE,65,8.1,8.1,84,0.00,CLR,,0.00,WeatherDisplay:10.37,2013-03-18 12:59:00,
2013-03-18 09:01:00,41.6,37.1,29.94,East,94,8.1,8.1,84,0.00,CLR,,0.00,WeatherDisplay:10.37,2013-03-18 13:01:00,
2013-03-18 09:02:00,41.7,36.9,29.94,East,94,8.1,8.1,83,0.00,CLR,,0.00,WeatherDisplay:10.37,2013-03-18 13:02:00,
2013-03-18 09:04:00,42.0,37.5,29.93,East,91,9.2,9.2,84,0.00,CLR,,0.00,WeatherDisplay:10.37,2013-03-18 13:04:00,
2013-03-18 09:05:00,42.0,37.5,29.93,East,94,9.2,9.2,84,0.00,CLR,,0.00,WeatherDisplay:10.37,2013-03-18 13:05:00,
2013-03-18 09:06:00,42.1,37.3,29.93,East,86,9.2,9.2,83,0.00,CLR,,0.00,WeatherDisplay:10.37,2013-03-18 13:06:00,
2013-03-18 09:08:00,42.4,37.6,29.94,East,95,8.1,8.1,83,0.00,CLR,,0.00,WeatherDisplay:10.37,2013-03-18 13:08:00,
2013-03-18 09:09:00,42.4,37.3,29.94,East,87,12.7,12.7,82,0.00,CLR,,0.00,WeatherDisplay:10.37,2013-03-18 13:09:00,
2013-03-18 09:10:00,42.4,37.3,29.94,NE,53,11.5,11.5,82,0.00,CLR,,0.00,WeatherDisplay:10.37,2013-03-18 13:10:00,
2013-03-18 09:11:00,42.5,37.4,29.94,ENE,77,11.5,11.5,82,0.00,CLR,,0.00,WeatherDisplay:10.37,2013-03-18 13:11:00,
2013-03-18 09:14:00,42.8,37.7,29.94,East,94,10.4,10.4,82,0.00,CLR,,0.00,WeatherDisplay:10.37,2013-03-18 13:14:00,
2013-03-18 09:15:00,42.9,37.8,29.94,East,95,8.1,8.1,82,0.00,CLR,,0.00,WeatherDisplay:10.37,2013-03-18 13:15:00,
2013-03-18 09:17:00,43.2,38.1,29.94,East,93,7.0,7.0,82,0.00,CLR,,0.00,WeatherDisplay:10.37,2013-03-18 13:17:00,
2013-03-18 09:19:00,43.3,37.9,29.93,East,82,9.2,9.2,81,0.00,CLR,,0.00,WeatherDisplay:10.37,2013-03-18 13:19:00,
2013-03-18 09:20:00,43.4,38.0,29.93,East,82,9.2,9.2,81,0.00,CLR,,0.00,WeatherDisplay:10.37,2013-03-18 13:20:00,
2013-03-18 09:22:00,43.9,38.4,29.93,ESE,103,5.8,5.8,81,0.00,CLR,,0.00,WeatherDisplay:10.37,2013-03-18 13:22:00,
2013-03-18 09:24:00,44.1,38.6,29.93,ENE,58,8.1,8.1,81,0.00,CLR,,0.00,WeatherDisplay:10.37,2013-03-18 13:24:00,
2013-03-18 09:25:00,44.1,38.6,29.94,East,97,6.9,6.9,81,0.00,CLR,,0.00,WeatherDisplay:10.37,2013-03-18 13:25:00,
2013-03-18 09:26:00,44.2,38.4,29.93,ENE,63,10.4,10.4,80,0.00,CLR,,0.00,WeatherDisplay:10.37,2013-03-18 13:26:00,
2013-03-18 09:28:00,44.5,38.7,29.93,SE,125,10.4,10.4,80,0.00,CLR,,0.00,WeatherDisplay:10.37,2013-03-18 13:28:00,
2013-03-18 09:29:00,44.6,38.8,29.94,SE,126,7.0,7.0,80,0.00,CLR,,0.00,WeatherDisplay:10.37,2013-03-18 13:29:00,
2013-03-18 09:30:00,44.6,38.8,29.94,ESE,112,8.1,8.1,80,0.00,CLR,,0.00,WeatherDisplay:10.37,2013-03-18 13:30:00,
2013-03-18 09:31:00,44.7,38.9,29.94,ENE,74,6.9,6.9,80,0.00,CLR,,0.00,WeatherDisplay:10.37,2013-03-18 13:31:00,
2013-03-18 09:34:00,44.9,39.1,29.93,East,96,6.9,6.9,80,0.00,CLR,,0.00,WeatherDisplay:10.37,2013-03-18 13:34:00,
2013-03-18 09:35:00,45.0,39.2,29.94,ENE,68,7.0,7.0,80,0.00,CLR,,0.00,WeatherDisplay:10.37,2013-03-18 13:35:00,
2013-03-18 09:36:00,45.1,39.0,29.94,NNE,28,11.5,11.5,79,0.00,CLR,,0.00,WeatherDisplay:10.37,2013-03-18 13:36:00,
2013-03-18 09:39:00,45.5,39.4,29.94,ENE,68,6.9,6.9,79,0.00,CLR,,0.00,WeatherDisplay:10.37,2013-03-18 13:39:00,
2013-03-18 09:40:00,45.5,39.0,29.94,ESE,106,10.4,10.4,78,0.00,CLR,,0.00,WeatherDisplay:10.37,2013-03-18 13:40:00,
2013-03-18 09:42:00,45.6,39.5,29.94,ENE,77,5.8,5.8,79,0.00,CLR,,0.00,WeatherDisplay:10.37,2013-03-18 13:42:00,
2013-03-18 09:44:00,45.6,39.5,29.94,NE,56,8.1,8.1,79,0.00,CLR,,0.00,WeatherDisplay:10.37,2013-03-18 13:44:00,
2013-03-18 09:45:00,45.7,39.6,29.93,East,98,6.0,6.0,79,0.00,CLR,,0.00,WeatherDisplay:10.37,2013-03-18 13:45:00,
2013-03-18 09:46:00,45.7,39.6,29.93,East,82,6.0,6.0,79,0.00,CLR,,0.00,WeatherDisplay:10.37,2013-03-18 13:46:00,
2013-03-18 09:47:00,45.7,39.6,29.93,ENE,77,8.1,8.1,79,0.00,CLR,,0.00,WeatherDisplay:10.37,2013-03-18 13:47:00,
2013-03-18 09:49:00,45.7,39.6,29.94,ENE,64,8.1,8.1,79,0.00,CLR,,0.00,WeatherDisplay:10.37,2013-03-18 13:49:00,
2013-03-18 09:50:00,45.7,39.2,29.94,ENE,73,5.8,5.8,78,0.00,CLR,,0.00,WeatherDisplay:10.37,2013-03-18 13:50:00,
2013-03-18 09:51:00,45.8,39.7,29.94,ENE,68,5.8,5.8,79,0.00,CLR,,0.00,WeatherDisplay:10.37,2013-03-18 13:51:00,
2013-03-18 09:53:00,46.2,40.0,29.94,ENE,75,6.9,6.9,79,0.00,CLR,,0.00,WeatherDisplay:10.37,2013-03-18 13:53:00,
2013-03-18 09:54:00,46.3,39.8,29.94,East,94,6.9,6.9,78,0.00,CLR,,0.00,WeatherDisplay:10.37,2013-03-18 13:54:00,
2013-03-18 09:55:00,46.6,39.8,29.94,NE,35,6.9,6.9,77,0.00,CLR,,0.00,WeatherDisplay:10.37,2013-03-18 13:55:00,
2013-03-18 09:56:00,46.7,39.9,29.94,ESE,108,9.0,9.0,77,0.00,CLR,,0.00,WeatherDisplay:10.37,2013-03-18 13:56:00,
2013-03-18 09:58:00,47.0,40.5,29.94,East,89,6.9,6.9,78,0.00,CLR,,0.00,WeatherDisplay:10.37,2013-03-18 13:58:00,
2013-03-18 09:59:00,47.1,40.6,29.94,ENE,71,6.0,6.0,78,0.00,CLR,,0.00,WeatherDisplay:10.37,2013-03-18 13:59:00,
2013-03-18 10:00:00,47.2,40.4,29.94,NE,54,8.1,8.1,77,0.00,CLR,,0.00,WeatherDisplay:10.37,2013-03-18 14:00:00,
2013-03-18 10:01:00,47.4,40.6,29.94,East,95,6.9,6.9,77,0.00,CLR,,0.00,WeatherDisplay:10.37,2013-03-18 14:01:00,
2013-03-18 10:04:00,47.9,41.4,29.94,ENE,63,4.6,4.6,78,0.00,CLR,,0.00,WeatherDisplay:10.37,2013-03-18 14:04:00,
2013-03-18 10:05:00,48.1,41.2,29.94,East,96,7.0,7.0,77,0.00,CLR,,0.00,WeatherDisplay:10.37,2013-03-18 14:05:00,
2013-03-18 10:07:00,48.4,41.2,29.94,ENE,58,10.4,10.4,76,0.00,CLR,,0.00,WeatherDisplay:10.37,2013-03-18 14:07:00,
2013-03-18 10:09:00,48.5,40.9,29.94,East,82,11.5,11.5,75,0.00,CLR,,0.00,WeatherDisplay:10.37,2013-03-18 14:09:00,
2013-03-18 10:10:00,48.5,40.9,29.94,East,85,11.5,11.5,75,0.00,CLR,,0.00,WeatherDisplay:10.37,2013-03-18 14:10:00,
2013-03-18 10:11:00,48.6,41.4,29.94,ENE,61,8.1,8.1,76,0.00,CLR,,0.00,WeatherDisplay:10.37,2013-03-18 14:11:00,
2013-03-18 10:12:00,48.7,41.5,29.93,East,98,9.2,9.2,76,0.00,CLR,,0.00,WeatherDisplay:10.37,2013-03-18 14:12:00,
2013-03-18 10:14:00,48.8,41.2,29.93,NE,51,9.2,9.2,75,0.00,CLR,,0.00,WeatherDisplay:10.37,2013-03-18 14:14:00,
2013-03-18 10:15:00,48.8,41.3,29.93,ENE,75,6.0,9.0,75,0.00,CLR,,0.00,WeatherDisplay:10.37,2013-03-18 14:15:00,
2013-03-18 10:16:00,49.1,41.9,29.93,ENE,68,9.0,9.0,76,0.00,CLR,,0.00,WeatherDisplay:10.37,2013-03-18 14:16:00,
2013-03-18 10:18:00,49.1,41.5,29.93,NE,44,9.2,9.2,75,0.00,CLR,,0.00,WeatherDisplay:10.37,2013-03-18 14:18:00,
2013-03-18 10:19:00,49.4,41.8,29.93,ENE,65,8.1,8.1,75,0.00,CLR,,0.00,WeatherDisplay:10.37,2013-03-18 14:19:00,
2013-03-18 10:20:00,49.4,41.8,29.93,NNE,32,8.1,8.1,75,0.00,CLR,,0.00,WeatherDisplay:10.37,2013-03-18 14:20:00,
2013-03-18 10:22:00,49.8,41.8,29.93,ENE,71,6.0,6.0,74,0.00,CLR,,0.00,WeatherDisplay:10.37,2013-03-18 14:22:00,
2013-03-18 10:23:00,49.9,41.9,29.93,NE,56,6.9,6.9,74,0.00,CLR,,0.00,WeatherDisplay:10.37,2013-03-18 14:23:00,
2013-03-18 10:25:00,50.0,42.0,29.93,ESE,110,6.9,6.9,74,0.00,CLR,,0.00,WeatherDisplay:10.37,2013-03-18 14:25:00,
2013-03-18 10:27:00,50.1,42.5,29.93,ESE,102,11.0,11.0,75,0.00,CLR,,0.00,WeatherDisplay:10.37,2013-03-18 14:27:00,
2013-03-18 10:28:00,50.1,41.8,29.92,ENE,76,11.5,11.5,73,0.00,CLR,,0.00,WeatherDisplay:10.37,2013-03-18 14:28:00,
2013-03-18 10:30:00,50.1,41.8,29.92,SE,139,10.4,10.4,73,0.00,CLR,,0.00,WeatherDisplay:10.37,2013-03-18 14:30:00,
2013-03-18 10:32:00,50.3,42.3,29.92,East,101,6.9,6.9,74,0.00,CLR,,0.00,WeatherDisplay:10.37,2013-03-18 14:32:00,
2013-03-18 10:33:00,50.4,42.4,29.93,ESE,120,8.1,8.1,74,0.00,CLR,,0.00,WeatherDisplay:10.37,2013-03-18 14:33:00,
2013-03-18 10:35:00,50.6,42.6,29.92,East,94,10.4,10.4,74,0.00,CLR,,0.00,WeatherDisplay:10.37,2013-03-18 14:35:00,
2013-03-18 10:38:00,50.8,42.5,29.92,East,96,9.2,9.2,73,0.00,CLR,,0.00,WeatherDisplay:10.37,2013-03-18 14:38:00,
2013-03-18 10:39:00,50.9,42.9,29.92,East,86,9.2,9.2,74,0.00,CLR,,0.00,WeatherDisplay:10.37,2013-03-18 14:39:00,
2013-03-18 10:40:00,51.2,42.8,29.93,ENE,74,9.0,9.0,73,0.00,CLR,,0.00,WeatherDisplay:10.37,2013-03-18 14:40:00,
2013-03-18 10:42:00,51.3,42.9,29.93,ENE,60,8.1,8.1,73,0.00,CLR,,0.00,WeatherDisplay:10.37,2013-03-18 14:42:00,
2013-03-18 10:43:00,51.4,43.0,29.92,ENE,58,6.9,6.9,73,0.00,CLR,,0.00,WeatherDisplay:10.37,2013-03-18 14:43:00,
2013-03-18 10:44:00,51.4,43.0,29.92,NE,40,8.0,8.0,73,0.00,CLR,,0.00,WeatherDisplay:10.37,2013-03-18 14:44:00,
2013-03-18 10:45:00,51.5,42.8,29.92,NE,56,8.1,8.1,72,0.00,CLR,,0.00,WeatherDisplay:10.37,2013-03-18 14:45:00,
2013-03-18 10:47:00,51.4,42.7,29.92,ENE,68,9.2,9.2,72,0.00,CLR,,0.00,WeatherDisplay:10.37,2013-03-18 14:47:00,
2013-03-18 10:48:00,51.4,43.0,29.92,ENE,75,8.1,8.1,73,0.00,CLR,,0.00,WeatherDisplay:10.37,2013-03-18 14:48:00,
2013-03-18 10:49:00,51.5,42.4,29.92,ENE,63,8.1,8.1,71,0.00,CLR,,0.00,WeatherDisplay:10.37,2013-03-18 14:49:00,
2013-03-18 10:51:00,51.5,43.1,29.92,NE,51,6.0,6.0,73,0.00,CLR,,0.00,WeatherDisplay:10.37,2013-03-18 14:51:00,
2013-03-18 10:53:00,51.5,42.8,29.92,East,87,8.1,8.1,72,0.00,CLR,,0.00,WeatherDisplay:10.37,2013-03-18 14:53:00,
2013-03-18 10:54:00,51.6,43.6,29.92,East,81,6.9,6.9,74,0.00,CLR,,0.00,WeatherDisplay:10.37,2013-03-18 14:54:00,
2013-03-18 10:55:00,51.6,43.6,29.92,ENE,75,6.9,6.9,74,0.00,CLR,,0.00,WeatherDisplay:10.37,2013-03-18 14:55:00,
2013-03-18 10:56:00,51.8,43.4,29.92,East,87,10.4,10.4,73,0.00,CLR,,0.00,WeatherDisplay:10.37,2013-03-18 14:56:00,
2013-03-18 10:58:00,51.9,43.2,29.92,East,81,8.1,8.1,72,0.00,CLR,,0.00,WeatherDisplay:10.37,2013-03-18 14:58:00,
2013-03-18 10:59:00,51.9,43.2,29.92,East,101,8.1,8.1,72,0.00,CLR,,0.00,WeatherDisplay:10.37,2013-03-18 14:59:00,
2013-03-18 11:00:00,51.9,42.8,29.91,NE,43,8.1,8.1,71,0.00,CLR,,0.00,WeatherDisplay:10.37,2013-03-18 15:00:00,
2013-03-18 11:02:00,51.9,43.2,29.92,East,92,9.2,9.2,72,0.00,CLR,,0.00,WeatherDisplay:10.37,2013-03-18 15:02:00,
2013-03-18 11:05:00,52.4,43.3,29.91,East,92,9.0,9.0,71,0.00,,,0.00,WeatherDisplay:10.37,2013-03-18 15:05:00,
2013-03-18 11:08:00,52.5,43.4,29.91,ENE,76,8.1,8.1,71,0.00,,,0.00,WeatherDisplay:10.37,2013-03-18 15:08:00,
2013-03-18 11:10:00,52.5,43.4,29.91,East,92,9.2,9.2,71,0.00,,,0.00,WeatherDisplay:10.37,2013-03-18 15:10:00,
2013-03-18 11:11:00,52.5,43.0,29.91,ENE,59,11.5,11.5,70,0.00,,,0.00,WeatherDisplay:10.37,2013-03-18 15:11:00,
2013-03-18 11:13:00,52.5,43.4,29.91,NNE,16,9.2,9.2,71,0.00,,,0.00,WeatherDisplay:10.37,2013-03-18 15:13:00,
2013-03-18 11:15:00,52.5,43.0,29.90,ESE,103,11.5,11.5,70,0.00,,,0.00,WeatherDisplay:10.37,2013-03-18 15:15:00,
2013-03-18 11:16:00,52.4,42.9,29.90,NE,56,10.4,10.4,70,0.00,,,0.00,WeatherDisplay:10.37,2013-03-18 15:16:00,
2013-03-18 11:17:00,52.4,42.9,29.90,NNW,327,10.4,10.4,70,0.00,,,0.00,WeatherDisplay:10.37,2013-03-18 15:17:00,
2013-03-18 11:18:00,52.3,42.8,29.90,East,94,11.5,11.5,70,0.00,,,0.00,WeatherDisplay:10.37,2013-03-18 15:18:00,
2013-03-18 11:20:00,52.4,43.3,29.91,East,87,6.9,6.9,71,0.00,,,0.00,WeatherDisplay:10.37,2013-03-18 15:20:00,
2013-03-18 11:21:00,52.5,43.4,29.91,ESE,108,9.2,9.2,71,0.00,,,0.00,WeatherDisplay:10.37,2013-03-18 15:21:00,
2013-03-18 11:22:00,52.6,43.5,29.91,East,80,10.4,10.4,71,0.00,,,0.00,WeatherDisplay:10.37,2013-03-18 15:22:00,
2013-03-18 11:24:00,52.8,43.7,29.91,East,95,9.2,9.2,71,0.00,,,0.00,WeatherDisplay:10.37,2013-03-18 15:24:00,
2013-03-18 11:26:00,53.1,43.6,29.90,East,96,6.0,6.0,70,0.00,,,0.00,WeatherDisplay:10.37,2013-03-18 15:26:00,
2013-03-18 11:27:00,53.3,44.1,29.90,NE,38,8.1,8.1,71,0.00,,,0.00,WeatherDisplay:10.37,2013-03-18 15:27:00,
2013-03-18 11:29:00,53.4,43.9,29.90,NE,51,8.1,8.1,70,0.00,,,0.00,WeatherDisplay:10.37,2013-03-18 15:29:00,
2013-03-18 11:31:00,53.8,44.6,29.90,ENE,77,6.9,6.9,71,0.00,,,0.00,WeatherDisplay:10.37,2013-03-18 15:31:00,
2013-03-18 11:32:00,54.1,45.3,29.90,East,92,7.0,7.0,72,0.00,,,0.00,WeatherDisplay:10.37,2013-03-18 15:32:00,
2013-03-18 11:33:00,54.2,45.4,29.90,East,101,9.0,9.0,72,0.00,,,0.00,WeatherDisplay:10.37,2013-03-18 15:33:00,
2013-03-18 11:34:00,54.5,44.9,29.90,East,81,9.2,9.2,70,0.00,,,0.00,WeatherDisplay:10.37,2013-03-18 15:34:00,
2013-03-18 11:36:00,54.4,44.1,29.90,East,89,8.1,8.1,68,0.00,,,0.00,WeatherDisplay:10.37,2013-03-18 15:36:00,
2013-03-18 11:38:00,54.4,44.4,29.90,SE,125,5.8,5.8,69,0.00,,,0.00,WeatherDisplay:10.37,2013-03-18 15:38:00,
2013-03-18 11:39:00,54.5,44.2,29.89,NE,51,5.8,5.8,68,0.00,,,0.00,WeatherDisplay:10.37,2013-03-18 15:39:00,
2013-03-18 11:42:00,54.7,45.1,29.90,ENE,71,5.8,5.8,70,0.00,,,0.00,WeatherDisplay:10.37,2013-03-18 15:42:00,
2013-03-18 11:43:00,54.8,44.4,29.90,East,96,6.9,6.9,68,0.00,,,0.00,WeatherDisplay:10.37,2013-03-18 15:43:00,
2013-03-18 11:45:00,54.9,44.5,29.90,SE,126,5.8,5.8,68,0.00,,,0.00,WeatherDisplay:10.37,2013-03-18 15:45:00,
2013-03-18 11:47:00,55.3,45.7,29.90,NNE,32,3.5,3.5,70,0.00,,,0.00,WeatherDisplay:10.37,2013-03-18 15:47:00,
2013-03-18 11:48:00,55.6,46.0,29.90,ENE,62,5.0,5.0,70,0.00,,,0.00,WeatherDisplay:10.37,2013-03-18 15:48:00,
2013-03-18 11:50:00,56.0,45.6,29.89,ENE,74,9.0,9.0,68,0.00,,,0.00,WeatherDisplay:10.37,2013-03-18 15:50:00,
2013-03-18 11:52:00,56.2,45.8,29.89,East,101,4.6,4.6,68,0.00,,,0.00,WeatherDisplay:10.37,2013-03-18 15:52:00,
2013-03-18 11:53:00,56.4,46.4,29.89,East,79,5.8,5.8,69,0.00,,,0.00,WeatherDisplay:10.37,2013-03-18 15:53:00,
2013-03-18 11:54:00,56.4,46.4,29.89,NE,36,5.8,5.8,69,0.00,,,0.00,WeatherDisplay:10.37,2013-03-18 15:54:00,
2013-03-18 11:56:00,56.5,45.3,29.89,East,85,5.8,5.9,66,0.00,,,0.00,WeatherDisplay:10.37,2013-03-18 15:56:00,
2013-03-18 11:57:00,56.5,45.7,29.89,WNW,298,5.0,5.0,67,0.00,,,0.00,WeatherDisplay:10.37,2013-03-18 15:57:00,
2013-03-18 11:59:00,56.7,47.0,29.89,NE,37,8.1,8.1,70,0.00,,,0.00,WeatherDisplay:10.37,2013-03-18 15:59:00,
2013-03-18 12:02:00,57.4,46.9,29.89,ENE,61,8.1,8.1,68,0.00,,,0.00,WeatherDisplay:10.37,2013-03-18 16:02:00,
2013-03-18 12:04:00,57.7,46.4,29.89,NE,51,6.9,6.9,66,0.00,,,0.00,WeatherDisplay:10.37,2013-03-18 16:04:00,
2013-03-18 12:07:00,58.6,46.9,29.89,ESE,120,11.5,11.5,65,0.00,,,0.00,WeatherDisplay:10.37,2013-03-18 16:07:00,
2013-03-18 12:08:00,58.8,47.5,29.89,NE,53,9.2,9.2,66,0.00,,,0.00,WeatherDisplay:10.37,2013-03-18 16:08:00,
2013-03-18 12:09:00,58.9,47.2,29.89,ENE,77,9.2,9.2,65,0.00,,,0.00,WeatherDisplay:10.37,2013-03-18 16:09:00,
2013-03-18 12:10:00,59.0,47.2,29.89,SSW,212,11.5,11.5,65,0.00,,,0.00,WeatherDisplay:10.37,2013-03-18 16:10:00,
2013-03-18 12:12:00,59.6,47.4,29.89,ESE,121,11.5,11.5,64,0.00,,,0.00,WeatherDisplay:10.37,2013-03-18 16:12:00,
2013-03-18 12:13:00,59.8,47.6,29.89,ESE,115,9.2,9.2,64,0.00,,,0.00,WeatherDisplay:10.37,2013-03-18 16:13:00,
2013-03-18 12:14:00,60.0,46.9,29.89,SE,132,9.2,9.2,62,0.00,,,0.00,WeatherDisplay:10.37,2013-03-18 16:14:00,
2013-03-18 12:15:00,60.0,46.9,29.89,ENE,71,6.9,6.9,62,0.00,,,0.00,WeatherDisplay:10.37,2013-03-18 16:15:00,
2013-03-18 12:17:00,60.2,47.1,29.89,East,82,6.0,6.0,62,0.00,,,0.00,WeatherDisplay:10.37,2013-03-18 16:17:00,
2013-03-18 12:18:00,60.1,47.0,29.88,ESE,113,10.4,10.4,62,0.00,,,0.00,WeatherDisplay:10.37,2013-03-18 16:18:00,
2013-03-18 12:20:00,60.1,46.6,29.88,ESE,102,10.4,10.4,61,0.00,,,0.00,WeatherDisplay:10.37,2013-03-18 16:20:00,
2013-03-18 12:23:00,60.0,46.9,29.88,SW,234,5.8,5.8,62,0.00,,,0.00,WeatherDisplay:10.37,2013-03-18 16:23:00,
2013-03-18 12:24:00,60.1,47.0,29.88,SE,138,3.5,3.5,62,0.00,,,0.00,WeatherDisplay:10.37,2013-03-18 16:24:00,
2013-03-18 12:25:00,60.1,47.0,29.88,SE,125,4.0,4.0,62,0.00,,,0.00,WeatherDisplay:10.37,2013-03-18 16:25:00,
2013-03-18 12:27:00,60.1,46.6,29.88,ENE,73,3.5,3.5,61,0.00,,,0.00,WeatherDisplay:10.37,2013-03-18 16:27:00,
2013-03-18 12:28:00,59.9,46.4,29.88,East,81,4.6,4.6,61,0.00,,,0.00,WeatherDisplay:10.37,2013-03-18 16:28:00,
2013-03-18 12:29:00,59.8,45.9,29.88,SE,132,9.2,9.2,60,0.00,,,0.00,WeatherDisplay:10.37,2013-03-18 16:29:00,
2013-03-18 12:30:00,59.7,45.8,29.88,SSE,148,9.2,9.2,60,0.00,,,0.00,WeatherDisplay:10.37,2013-03-18 16:30:00,
2013-03-18 12:32:00,59.4,45.9,29.88,ENE,65,8.1,8.1,61,0.00,,,0.00,WeatherDisplay:10.37,2013-03-18 16:32:00,
2013-03-18 12:34:00,59.1,45.7,29.88,East,92,11.5,11.5,61,0.00,,,0.00,WeatherDisplay:10.37,2013-03-18 16:34:00,
2013-03-18 12:35:00,59.0,45.6,29.88,East,99,11.5,11.5,61,0.00,,,0.00,WeatherDisplay:10.37,2013-03-18 16:35:00,
2013-03-18 12:37:00,58.7,45.7,29.88,NW,323,3.5,3.5,62,0.00,,,0.00,WeatherDisplay:10.37,2013-03-18 16:37:00,
2013-03-18 12:39:00,58.6,45.6,29.88,ENE,60,5.8,5.8,62,0.00,,,0.00,WeatherDisplay:10.37,2013-03-18 16:39:00,
2013-03-18 12:40:00,58.5,45.9,29.88,SE,132,5.8,5.8,63,0.00,,,0.00,WeatherDisplay:10.37,2013-03-18 16:40:00,
2013-03-18 12:43:00,58.4,45.4,29.88,WNW,288,4.6,4.6,62,0.00,,,0.00,WeatherDisplay:10.37,2013-03-18 16:43:00,
2013-03-18 12:44:00,58.5,46.4,29.88,SSE,155,5.0,5.0,64,0.00,,,0.00,WeatherDisplay:10.37,2013-03-18 16:44:00,
2013-03-18 12:45:00,58.6,47.3,29.88,SE,138,4.6,4.6,66,0.00,,,0.00,WeatherDisplay:10.37,2013-03-18 16:45:00,
2013-03-18 12:48:00,58.7,46.5,29.87,NNW,337,1.1,1.1,64,0.00,,,0.00,WeatherDisplay:10.37,2013-03-18 16:48:00,
2013-03-18 12:50:00,58.8,47.5,29.87,South,174,2.0,5.0,66,0.00,,,0.00,WeatherDisplay:10.37,2013-03-18 16:50:00,
2013-03-18 12:53:00,59.4,48.0,29.87,ESE,118,5.0,5.0,66,0.00,,,0.00,WeatherDisplay:10.37,2013-03-18 16:53:00,
2013-03-18 12:55:00,59.5,47.3,29.87,WSW,244,2.0,7.0,64,0.00,,,0.00,WeatherDisplay:10.37,2013-03-18 16:55:00,
2013-03-18 12:58:00,60.1,48.3,29.86,East,94,4.6,4.6,65,0.00,,,0.00,WeatherDisplay:10.37,2013-03-18 16:58:00,
2013-03-18 13:00:00,60.0,46.9,29.86,SE,137,6.9,6.9,62,0.00,,,0.00,WeatherDisplay:10.37,2013-03-18 17:00:00,
2013-03-18 13:01:00,60.0,47.4,29.86,East,96,6.9,6.9,63,0.00,,,0.00,WeatherDisplay:10.37,2013-03-18 17:01:00,
2013-03-18 13:03:00,59.9,46.8,29.86,SE,145,8.1,8.1,62,0.00,,,0.00,WeatherDisplay:10.37,2013-03-18 17:03:00,
2013-03-18 13:05:00,60.0,47.4,29.86,SE,139,5.8,5.8,63,0.00,,,0.00,WeatherDisplay:10.37,2013-03-18 17:05:00,
2013-03-18 13:06:00,60.0,47.4,29.86,East,82,6.0,6.0,63,0.00,,,0.00,WeatherDisplay:10.37,2013-03-18 17:06:00,
2013-03-18 13:08:00,59.8,45.9,29.86,East,89,11.5,11.5,60,0.00,,,0.00,WeatherDisplay:10.37,2013-03-18 17:08:00,
2013-03-18 13:10:00,59.3,46.3,29.86,SE,127,8.1,8.1,62,0.00,,,0.00,WeatherDisplay:10.37,2013-03-18 17:10:00,
2013-03-18 13:11:00,59.0,45.6,29.87,East,82,10.4,10.4,61,0.00,,,0.00,WeatherDisplay:10.37,2013-03-18 17:11:00,
2013-03-18 13:12:00,58.6,44.8,29.87,East,96,9.2,9.2,60,0.00,,,0.00,WeatherDisplay:10.37,2013-03-18 17:12:00,
2013-03-18 13:13:00,58.1,45.1,29.87,NE,47,9.2,9.2,62,0.00,,,0.00,WeatherDisplay:10.37,2013-03-18 17:13:00,
2013-03-18 13:15:00,57.6,45.1,29.87,East,89,4.0,4.0,63,0.00,,,0.00,WeatherDisplay:10.37,2013-03-18 17:15:00,
2013-03-18 13:16:00,57.4,45.3,29.87,ENE,70,5.8,5.8,64,0.00,,,0.00,WeatherDisplay:10.37,2013-03-18 17:16:00,
2013-03-18 13:17:00,57.2,45.1,29.87,East,84,8.1,8.1,64,0.00,,,0.00,WeatherDisplay:10.37,2013-03-18 17:17:00,
2013-03-18 13:18:00,57.1,45.4,29.87,ESE,102,6.9,6.9,65,0.00,,,0.00,WeatherDisplay:10.37,2013-03-18 17:18:00,
2013-03-18 13:20:00,56.9,45.7,29.86,East,95,5.0,5.0,66,0.00,,,0.00,WeatherDisplay:10.37,2013-03-18 17:20:00,
2013-03-18 13:22:00,56.9,45.3,29.86,East,82,5.8,5.8,65,0.00,,,0.00,WeatherDisplay:10.37,2013-03-18 17:22:00,
2013-03-18 13:23:00,56.8,46.0,29.85,SE,141,4.6,4.6,67,0.00,,,0.00,WeatherDisplay:10.37,2013-03-18 17:23:00,
2013-03-18 13:25:00,57.0,46.1,29.85,East,90,6.0,6.0,67,0.00,,,0.00,WeatherDisplay:10.37,2013-03-18 17:25:00,
2013-03-18 13:27:00,57.1,46.2,29.85,East,80,9.2,9.2,67,0.00,,,0.00,WeatherDisplay:10.37,2013-03-18 17:27:00,
2013-03-18 13:28:00,57.3,46.8,29.85,East,97,6.9,6.9,68,0.00,,,0.00,WeatherDisplay:10.37,2013-03-18 17:28:00,
2013-03-18 13:30:00,57.5,46.6,29.85,ENE,73,6.9,6.9,67,0.00,,,0.00,WeatherDisplay:10.37,2013-03-18 17:30:00,
2013-03-18 13:32:00,57.4,46.1,29.85,East,98,5.8,5.8,66,0.00,,,0.00,WeatherDisplay:10.37,2013-03-18 17:32:00,
2013-03-18 13:33:00,57.4,46.1,29.85,East,85,5.8,5.8,66,0.00,,,0.00,WeatherDisplay:10.37,2013-03-18 17:33:00,
2013-03-18 13:35:00,57.1,45.8,29.86,East,98,5.8,5.8,66,0.00,,,0.00,WeatherDisplay:10.37,2013-03-18 17:35:00,
2013-03-18 13:37:00,57.0,46.1,29.86,ENE,74,3.5,3.5,67,0.00,,,0.00,WeatherDisplay:10.37,2013-03-18 17:37:00,
2013-03-18 13:38:00,57.0,46.1,29.86,East,94,4.6,4.6,67,0.00,,,0.00,WeatherDisplay:10.37,2013-03-18 17:38:00,
2013-03-18 13:39:00,56.9,45.7,29.86,SE,136,4.6,4.6,66,0.00,,,0.00,WeatherDisplay:10.37,2013-03-18 17:39:00,
2013-03-18 13:41:00,57.0,46.1,29.86,ESE,102,4.0,4.0,67,0.00,,,0.00,WeatherDisplay:10.37,2013-03-18 17:41:00,
2013-03-18 13:43:00,56.9,45.7,29.86,ENE,70,5.8,5.8,66,0.00,,,0.00,WeatherDisplay:10.37,2013-03-18 17:43:00,
2013-03-18 13:44:00,56.8,46.3,29.86,ENE,68,5.8,5.8,68,0.00,,,0.00,WeatherDisplay:10.37,2013-03-18 17:44:00,
2013-03-18 13:46:00,56.6,47.3,29.86,ENE,75,4.0,4.0,71,0.00,,,0.00,WeatherDisplay:10.37,2013-03-18 17:46:00,
2013-03-18 13:48:00,56.4,46.7,29.86,East,88,5.8,5.8,70,0.00,,,0.00,WeatherDisplay:10.37,2013-03-18 17:48:00,
2013-03-18 13:49:00,56.3,46.6,29.86,East,94,5.8,5.8,70,0.00,,,0.00,WeatherDisplay:10.37,2013-03-18 17:49:00,
2013-03-18 13:52:00,56.1,47.2,29.85,NW,323,3.5,3.5,72,0.00,,,0.00,WeatherDisplay:10.37,2013-03-18 17:52:00,
2013-03-18 13:53:00,56.1,47.9,29.85,NNW,341,7.0,7.0,74,0.00,,,0.00,WeatherDisplay:10.37,2013-03-18 17:53:00,
2013-03-18 13:54:00,55.9,47.4,29.85,NW,324,8.1,8.1,73,0.00,,,0.00,WeatherDisplay:10.37,2013-03-18 17:54:00,
2013-03-18 13:57:00,54.3,46.5,29.86,WNW,299,3.5,3.5,75,0.00,,,0.00,WeatherDisplay:10.37,2013-03-18 17:57:00,
2013-03-18 13:58:00,53.8,46.4,29.85,NW,321,5.0,5.0,76,0.00,,,0.00,WeatherDisplay:10.37,2013-03-18 17:58:00,
2013-03-18 13:59:00,53.5,46.5,29.85,NW,316,5.8,5.8,77,0.00,,,0.00,WeatherDisplay:10.37,2013-03-18 17:59:00,
2013-03-18 14:02:00,52.7,46.4,29.86,NW,309,3.5,3.5,79,0.00,,,0.00,WeatherDisplay:10.37,2013-03-18 18:02:00,
2013-03-18 14:03:00,52.6,46.3,29.86,NW,309,3.5,3.5,79,0.00,,,0.00,WeatherDisplay:10.37,2013-03-18 18:03:00,
2013-03-18 14:04:00,52.4,46.4,29.86,NNW,340,3.5,3.5,80,0.00,,,0.00,WeatherDisplay:10.37,2013-03-18 18:04:00,
2013-03-18 14:08:00,52.1,46.1,29.86,West,260,3.0,3.0,80,0.00,,,0.00,WeatherDisplay:10.37,2013-03-18 18:08:00,
2013-03-18 14:09:00,52.0,46.3,29.87,WSW,253,3.5,3.5,81,0.01,RA,,0.01,WeatherDisplay:10.37,2013-03-18 18:09:00,
2013-03-18 14:13:00,51.5,46.2,29.87,NW,311,3.5,3.5,82,0.01,RA,,0.01,WeatherDisplay:10.37,2013-03-18 18:13:00,
2013-03-18 14:14:00,51.4,46.4,29.87,West,259,2.3,2.3,83,0.01,RA,,0.01,WeatherDisplay:10.37,2013-03-18 18:14:00,
2013-03-18 14:15:00,51.3,46.6,29.87,West,259,2.3,2.3,84,0.01,RA,,0.02,WeatherDisplay:10.37,2013-03-18 18:15:00,
2013-03-18 14:19:00,50.6,45.9,29.87,NNW,333,3.5,3.5,84,0.02,RA,,0.02,WeatherDisplay:10.37,2013-03-18 18:19:00,
2013-03-18 14:20:00,50.3,45.3,29.87,North,2,3.5,3.5,83,0.03,RA,,0.03,WeatherDisplay:10.37,2013-03-18 18:20:00,
2013-03-18 14:24:00,49.1,44.8,29.88,WNW,297,3.5,3.5,85,0.03,RA,,0.03,WeatherDisplay:10.37,2013-03-18 18:24:00,
2013-03-18 14:25:00,48.9,44.6,29.88,NW,306,3.5,3.5,85,0.03,RA,,0.03,WeatherDisplay:10.37,2013-03-18 18:25:00,
2013-03-18 14:30:00,47.7,43.7,29.88,North,8,4.6,4.6,86,0.04,RA,,0.04,WeatherDisplay:10.37,2013-03-18 18:30:00,
2013-03-18 14:31:00,47.5,43.5,29.88,NW,316,3.5,3.5,86,0.04,RA,,0.04,WeatherDisplay:10.37,2013-03-18 18:31:00,
2013-03-18 14:35:00,47.2,43.8,29.88,West,278,1.1,1.1,88,0.06,RA,,0.06,WeatherDisplay:10.37,2013-03-18 18:35:00,
2013-03-18 14:36:00,47.0,43.6,29.88,SSE,163,2.3,2.3,88,0.06,RA,,0.07,WeatherDisplay:10.37,2013-03-18 18:36:00,
2013-03-18 14:40:00,46.7,43.4,29.88,South,176,1.0,3.0,88,0.01,RA,,0.08,WeatherDisplay:10.37,2013-03-18 18:40:00,
2013-03-18 14:42:00,46.4,43.0,29.89,ENE,57,3.5,3.5,88,0.09,RA,,0.09,WeatherDisplay:10.37,2013-03-18 18:42:00,
2013-03-18 14:45:00,46.0,42.6,29.89,NNE,30,3.5,3.5,88,0.10,RA,,0.10,WeatherDisplay:10.37,2013-03-18 18:45:00,
2013-03-18 14:47:00,45.8,42.4,29.88,East,92,3.5,3.5,88,0.11,RA,,0.12,WeatherDisplay:10.37,2013-03-18 18:47:00,
2013-03-18 14:50:00,45.7,42.6,29.87,ESE,106,3.5,3.5,89,0.13,RA,,0.13,WeatherDisplay:10.37,2013-03-18 18:50:00,
2013-03-18 14:51:00,45.6,42.8,29.86,ENE,78,3.5,3.5,90,0.13,RA,,0.13,WeatherDisplay:10.37,2013-03-18 18:51:00,
2013-03-18 14:52:00,45.5,42.7,29.86,East,91,5.8,5.8,90,0.14,RA,,0.14,WeatherDisplay:10.37,2013-03-18 18:52:00,
2013-03-18 14:55:00,45.5,43.0,29.86,East,84,3.0,3.0,91,0.16,RA,,0.16,WeatherDisplay:10.37,2013-03-18 18:55:00,
2013-03-18 14:56:00,45.5,43.0,29.86,East,93,5.0,5.0,91,0.16,RA,,0.16,WeatherDisplay:10.37,2013-03-18 18:56:00,
2013-03-18 14:57:00,45.5,43.0,29.86,ESE,118,4.6,4.6,91,0.16,RA,,0.17,WeatherDisplay:10.37,2013-03-18 18:57:00,
2013-03-18 15:00:00,45.5,43.3,29.86,SE,129,3.5,3.5,92,0.18,RA,,0.18,WeatherDisplay:10.37,2013-03-18 19:00:00,
2013-03-18 15:01:00,45.6,43.4,29.86,East,87,3.5,3.5,92,0.18,RA,,0.18,WeatherDisplay:10.37,2013-03-18 19:01:00,
2013-03-18 15:03:00,45.6,43.4,29.85,SE,143,4.6,4.6,92,0.19,RA,,0.20,WeatherDisplay:10.37,2013-03-18 19:03:00,
2013-03-18 15:05:00,45.5,43.3,29.86,North,5,3.5,3.5,92,0.20,RA,,0.20,WeatherDisplay:10.37,2013-03-18 19:05:00,
2013-03-18 15:06:00,45.5,43.3,29.86,NNE,19,3.5,3.5,92,0.20,RA,,0.20,WeatherDisplay:10.37,2013-03-18 19:06:00,
2013-03-18 15:08:00,45.4,43.2,29.85,North,1,1.1,0.0,92,0.20,RA,,0.20,WeatherDisplay:10.37,2013-03-18 19:08:00,
2013-03-18 15:10:00,45.4,43.5,29.85,NE,37,2.3,2.3,93,0.20,RA,,0.21,WeatherDisplay:10.37,2013-03-18 19:10:00,
2013-03-18 15:11:00,45.4,43.5,29.85,SE,134,3.5,3.5,93,0.20,RA,,0.21,WeatherDisplay:10.37,2013-03-18 19:11:00,
2013-03-18 15:12:00,45.4,43.5,29.85,SE,139,3.5,3.5,93,0.20,RA,,0.22,WeatherDisplay:10.37,2013-03-18 19:12:00,
2013-03-18 15:13:00,45.3,43.4,29.86,SE,137,1.1,1.1,93,0.21,RA,,0.22,WeatherDisplay:10.37,2013-03-18 19:13:00,
2013-03-18 15:15:00,45.3,43.4,29.86,NNW,334,2.3,0.0,93,0.20,RA,,0.22,WeatherDisplay:10.37,2013-03-18 19:15:00,
2013-03-18 15:17:00,45.3,43.4,29.86,NW,316,5.0,5.0,93,0.20,RA,,0.23,WeatherDisplay:10.37,2013-03-18 19:17:00,
2013-03-18 15:18:00,45.3,43.1,29.87,WNW,289,4.6,4.6,92,0.21,RA,,0.23,WeatherDisplay:10.37,2013-03-18 19:18:00,
2013-03-18 15:20:00,45.2,43.3,29.86,East,85,3.0,3.0,93,0.21,RA,,0.24,WeatherDisplay:10.37,2013-03-18 19:20:00,
2013-03-18 15:22:00,45.2,43.3,29.85,East,91,3.5,3.5,93,0.22,RA,,0.25,WeatherDisplay:10.37,2013-03-18 19:22:00,
2013-03-18 15:23:00,45.1,43.2,29.85,East,91,4.6,4.6,93,0.23,RA,,0.26,WeatherDisplay:10.37,2013-03-18 19:23:00,
2013-03-18 15:25:00,45.1,43.2,29.86,NNW,327,3.5,3.5,93,0.24,RA,,0.27,WeatherDisplay:10.37,2013-03-18 19:25:00,
2013-03-18 15:27:00,45.1,43.2,29.86,NNW,335,3.5,3.5,93,0.24,RA,,0.28,WeatherDisplay:10.37,2013-03-18 19:27:00,
2013-03-18 15:28:00,45.1,43.2,29.86,ENE,74,3.5,3.5,93,0.24,RA,,0.28,WeatherDisplay:10.37,2013-03-18 19:28:00,
2013-03-18 15:31:00,45.0,43.1,29.87,WNW,302,2.3,2.3,93,0.25,RA,,0.29,WeatherDisplay:10.37,2013-03-18 19:31:00,
2013-03-18 15:33:00,44.9,43.0,29.88,NW,306,4.0,4.0,93,0.26,RA,,0.30,WeatherDisplay:10.37,2013-03-18 19:33:00,
2013-03-18 15:34:00,44.8,42.9,29.87,WNW,295,5.8,5.8,93,0.25,RA,,0.31,WeatherDisplay:10.37,2013-03-18 19:34:00,
2013-03-18 15:37:00,44.7,42.8,29.88,NW,309,3.5,3.5,93,0.25,RA,,0.32,WeatherDisplay:10.37,2013-03-18 19:37:00,
2013-03-18 15:38:00,44.6,42.7,29.88,North,351,4.6,4.6,93,0.26,RA,,0.33,WeatherDisplay:10.37,2013-03-18 19:38:00,
2013-03-18 15:39:00,44.4,42.2,29.88,NW,324,4.6,4.6,92,0.27,RA,,0.34,WeatherDisplay:10.37,2013-03-18 19:39:00,
2013-03-18 15:42:00,44.1,41.9,29.88,WNW,292,2.3,2.3,92,0.27,RA,,0.36,WeatherDisplay:10.37,2013-03-18 19:42:00,
2013-03-18 15:43:00,44.0,41.8,29.88,NW,319,2.3,2.3,92,0.27,RA,,0.36,WeatherDisplay:10.37,2013-03-18 19:43:00,
2013-03-18 15:44:00,43.9,41.7,29.88,NW,313,4.6,4.6,92,0.27,RA,,0.37,WeatherDisplay:10.37,2013-03-18 19:44:00,
2013-03-18 15:47:00,43.6,41.4,29.88,NW,324,3.5,3.5,92,0.28,RA,,0.39,WeatherDisplay:10.37,2013-03-18 19:47:00,
2013-03-18 15:48:00,43.5,41.3,29.88,WSW,257,3.5,3.5,92,0.27,RA,,0.39,WeatherDisplay:10.37,2013-03-18 19:48:00,
2013-03-18 15:49:00,43.5,41.6,29.88,WSW,257,1.1,1.1,93,0.28,RA,,0.40,WeatherDisplay:10.37,2013-03-18 19:49:00,
2013-03-18 15:52:00,43.3,41.4,29.88,NW,316,4.6,4.6,93,0.26,RA,,0.40,WeatherDisplay:10.37,2013-03-18 19:52:00,
2013-03-18 15:54:00,43.2,41.0,29.88,SSE,153,4.6,4.6,92,0.26,RA,,0.40,WeatherDisplay:10.37,2013-03-18 19:54:00,
2013-03-18 15:58:00,43.1,41.2,29.89,NW,310,2.3,2.3,93,0.24,RA,,0.41,WeatherDisplay:10.37,2013-03-18 19:58:00,
2013-03-18 15:59:00,43.1,41.2,29.89,NW,310,1.1,0.0,93,0.25,RA,,0.42,WeatherDisplay:10.37,2013-03-18 19:59:00,
2013-03-18 16:00:00,43.1,41.2,29.89,SSW,212,2.0,2.0,93,0.25,RA,,0.42,WeatherDisplay:10.37,2013-03-18 20:00:00,
2013-03-18 16:03:00,43.0,41.1,29.88,WSW,248,1.1,1.1,93,0.25,RA,,0.44,WeatherDisplay:10.37,2013-03-18 20:03:00,
2013-03-18 16:04:00,43.0,41.1,29.89,SSE,167,2.3,2.3,93,0.24,RA,,0.44,WeatherDisplay:10.37,2013-03-18 20:04:00,
2013-03-18 16:05:00,42.9,41.1,29.89,ESE,119,1.0,3.0,93,0.00,RA,,0.44,WeatherDisplay:10.37,2013-03-18 20:05:00,
2013-03-18 16:08:00,42.9,41.3,29.89,SE,127,2.3,2.3,94,0.25,RA,,0.45,WeatherDisplay:10.37,2013-03-18 20:08:00,
2013-03-18 16:09:00,42.9,41.3,29.89,ESE,113,3.5,3.5,94,0.24,RA,,0.45,WeatherDisplay:10.37,2013-03-18 20:09:00,
2013-03-18 16:10:00,42.9,41.3,29.89,ESE,121,2.0,3.0,94,0.01,RA,,0.46,WeatherDisplay:10.37,2013-03-18 20:10:00,
2013-03-18 16:11:00,42.9,41.0,29.89,East,82,2.3,2.3,93,0.25,RA,,0.46,WeatherDisplay:10.37,2013-03-18 20:11:00,
2013-03-18 16:14:00,42.9,41.0,29.89,NE,46,3.5,3.5,93,0.25,RA,,0.47,WeatherDisplay:10.37,2013-03-18 20:14:00,
2013-03-18 16:15:00,42.9,41.3,29.89,East,98,1.0,3.0,94,0.00,RA,,0.47,WeatherDisplay:10.37,2013-03-18 20:15:00,
2013-03-18 16:17:00,42.9,41.3,29.89,East,94,3.5,3.5,94,0.26,RA,,0.48,WeatherDisplay:10.37,2013-03-18 20:17:00,
2013-03-18 16:19:00,42.9,41.3,29.89,SE,144,3.5,3.5,94,0.26,RA,,0.49,WeatherDisplay:10.37,2013-03-18 20:19:00,
2013-03-18 16:20:00,42.9,41.3,29.90,East,84,3.5,3.5,94,0.25,RA,,0.49,WeatherDisplay:10.37,2013-03-18 20:20:00,
2013-03-18 16:22:00,43.0,41.4,29.90,SE,136,1.1,1.1,94,0.25,RA,,0.50,WeatherDisplay:10.37,2013-03-18 20:22:00,
2013-03-18 16:24:00,43.1,41.5,29.91,SE,139,2.3,2.3,94,0.25,RA,,0.51,WeatherDisplay:10.37,2013-03-18 20:24:00,
2013-03-18 16:25:00,43.1,41.5,29.91,SE,139,0.0,0.0,94,0.24,RA,,0.51,WeatherDisplay:10.37,2013-03-18 20:25:00,
2013-03-18 16:27:00,43.1,41.5,29.92,SE,144,2.3,2.3,94,0.24,RA,,0.51,WeatherDisplay:10.37,2013-03-18 20:27:00,
2013-03-18 16:29:00,43.2,41.6,29.92,SE,144,1.1,1.1,94,0.24,RA,,0.52,WeatherDisplay:10.37,2013-03-18 20:29:00,
2013-03-18 16:30:00,43.2,41.6,29.92,ESE,121,1.1,1.1,94,0.23,RA,,0.52,WeatherDisplay:10.37,2013-03-18 20:30:00,
2013-03-18 16:32:00,43.1,41.5,29.91,East,101,3.5,3.5,94,0.23,RA,,0.53,WeatherDisplay:10.37,2013-03-18 20:32:00,
2013-03-18 16:34:00,43.1,41.5,29.91,East,87,3.5,3.5,94,0.22,RA,,0.53,WeatherDisplay:10.37,2013-03-18 20:34:00,
2013-03-18 16:35:00,43.1,41.5,29.91,East,87,2.3,2.3,94,0.21,RA,,0.53,WeatherDisplay:10.37,2013-03-18 20:35:00,
2013-03-18 16:37:00,43.1,41.5,29.92,SE,141,1.1,1.1,94,0.21,RA,,0.54,WeatherDisplay:10.37,2013-03-18 20:37:00,
2013-03-18 16:40:00,43.1,41.5,29.92,ESE,103,2.3,2.3,94,0.20,RA,,0.54,WeatherDisplay:10.37,2013-03-18 20:40:00,
2013-03-18 16:42:00,43.1,41.5,29.91,ESE,103,3.5,3.5,94,0.19,RA,,0.55,WeatherDisplay:10.37,2013-03-18 20:42:00,
2013-03-18 16:43:00,43.1,41.5,29.90,SE,143,4.6,4.6,94,0.19,RA,,0.55,WeatherDisplay:10.37,2013-03-18 20:43:00,
2013-03-18 16:45:00,43.1,41.5,29.90,ESE,113,2.0,5.0,94,0.01,RA,,0.56,WeatherDisplay:10.37,2013-03-18 20:45:00,
2013-03-18 16:47:00,43.1,41.5,29.90,East,101,2.3,2.3,94,0.17,RA,,0.56,WeatherDisplay:10.37,2013-03-18 20:47:00,
2013-03-18 16:48:00,43.2,41.6,29.90,SE,131,4.6,4.6,94,0.17,RA,,0.56,WeatherDisplay:10.37,2013-03-18 20:48:00,
2013-03-18 16:50:00,43.2,41.6,29.90,SSE,147,4.6,4.6,94,0.17,RA,,0.57,WeatherDisplay:10.37,2013-03-18 20:50:00,
2013-03-18 16:52:00,43.2,41.6,29.90,SE,129,4.6,4.6,94,0.17,RA,,0.57,WeatherDisplay:10.37,2013-03-18 20:52:00,
2013-03-18 16:53:00,43.2,41.6,29.90,ESE,122,6.9,6.9,94,0.17,RA,,0.57,WeatherDisplay:10.37,2013-03-18 20:53:00,
2013-03-18 16:55:00,43.3,41.7,29.90,East,81,3.5,3.5,94,0.16,RA,,0.57,WeatherDisplay:10.37,2013-03-18 20:55:00,
2013-03-18 16:56:00,43.3,41.7,29.90,East,101,3.5,3.5,94,0.16,RA,,0.58,WeatherDisplay:10.37,2013-03-18 20:56:00,
2013-03-18 16:57:00,43.3,41.7,29.91,SSE,167,3.5,3.5,94,0.17,RA,,0.58,WeatherDisplay:10.37,2013-03-18 20:57:00,
2013-03-18 16:58:00,43.4,41.8,29.91,East,79,2.3,2.3,94,0.17,RA,,0.58,WeatherDisplay:10.37,2013-03-18 20:58:00,
2013-03-18 17:00:00,43.5,41.9,29.91,East,92,2.3,2.3,94,0.17,RA,,0.59,WeatherDisplay:10.37,2013-03-18 21:00:00,
2013-03-18 17:01:00,43.4,41.8,29.92,East,91,2.3,2.3,94,0.17,RA,,0.59,WeatherDisplay:10.37,2013-03-18 21:01:00,
2013-03-18 17:03:00,43.5,41.9,29.92,East,91,0.0,0.0,94,0.16,RA,,0.60,WeatherDisplay:10.37,2013-03-18 21:03:00,
2013-03-18 17:05:00,43.6,42.0,29.92,SE,125,1.1,1.1,94,0.16,RA,,0.60,WeatherDisplay:10.37,2013-03-18 21:05:00,
2013-03-18 17:06:00,43.6,42.3,29.92,East,100,2.3,2.3,95,0.15,RA,,0.61,WeatherDisplay:10.37,2013-03-18 21:06:00,
2013-03-18 17:09:00,43.7,42.4,29.92,ESE,119,2.0,2.0,95,0.16,RA,,0.61,WeatherDisplay:10.37,2013-03-18 21:09:00,
2013-03-18 17:10:00,43.7,42.1,29.92,SE,141,3.5,3.5,94,0.16,RA,,0.62,WeatherDisplay:10.37,2013-03-18 21:10:00,
2013-03-18 17:11:00,43.7,42.1,29.92,SE,137,3.0,3.0,94,0.16,RA,,0.62,WeatherDisplay:10.37,2013-03-18 21:11:00,
2013-03-18 17:14:00,43.7,42.1,29.92,East,96,2.3,2.3,94,0.16,RA,,0.63,WeatherDisplay:10.37,2013-03-18 21:14:00,
2013-03-18 17:15:00,43.7,42.1,29.92,SE,136,1.0,3.0,94,0.01,RA,,0.64,WeatherDisplay:10.37,2013-03-18 21:15:00,
2013-03-18 17:16:00,43.7,42.1,29.92,SSE,147,2.3,2.3,94,0.16,RA,,0.64,WeatherDisplay:10.37,2013-03-18 21:16:00,
2013-03-18 17:17:00,43.7,42.1,29.92,SSE,147,1.1,1.1,94,0.16,RA,,0.64,WeatherDisplay:10.37,2013-03-18 21:17:00,
2013-03-18 17:19:00,43.7,42.1,29.93,SE,141,1.1,1.1,94,0.16,RA,,0.65,WeatherDisplay:10.37,2013-03-18 21:19:00,
2013-03-18 17:20:00,43.6,42.0,29.93,SE,141,1.1,1.1,94,0.16,RA,,0.65,WeatherDisplay:10.37,2013-03-18 21:20:00,
2013-03-18 17:21:00,43.7,42.1,29.93,SE,126,2.3,2.3,94,0.15,RA,,0.65,WeatherDisplay:10.37,2013-03-18 21:21:00,
2013-03-18 17:23:00,43.7,42.1,29.93,SE,134,2.3,2.3,94,0.16,RA,,0.66,WeatherDisplay:10.37,2013-03-18 21:23:00,
2013-03-18 17:24:00,43.7,42.1,29.93,SE,130,3.0,3.0,94,0.15,RA,,0.66,WeatherDisplay:10.37,2013-03-18 21:24:00,
2013-03-18 17:25:00,43.6,42.0,29.93,SE,130,3.5,3.5,94,0.15,RA,,0.66,WeatherDisplay:10.37,2013-03-18 21:25:00,
2013-03-18 17:27:00,43.6,42.0,29.93,SE,136,3.5,3.5,94,0.16,RA,,0.67,WeatherDisplay:10.37,2013-03-18 21:27:00,
2013-03-18 17:28:00,43.6,42.0,29.93,SE,141,2.3,2.3,94,0.15,RA,,0.67,WeatherDisplay:10.37,2013-03-18 21:28:00,
2013-03-18 17:29:00,43.6,42.0,29.93,SSE,155,3.5,3.5,94,0.15,RA,,0.67,WeatherDisplay:10.37,2013-03-18 21:29:00,
2013-03-18 17:30:00,43.6,42.0,29.93,SE,129,3.5,3.5,94,0.15,RA,,0.67,WeatherDisplay:10.37,2013-03-18 21:30:00,
2013-03-18 17:32:00,43.6,42.0,29.93,ESE,116,4.0,4.0,94,0.15,RA,,0.68,WeatherDisplay:10.37,2013-03-18 21:32:00,
2013-03-18 17:34:00,43.6,42.0,29.93,SE,140,3.5,3.5,94,0.15,RA,,0.68,WeatherDisplay:10.37,2013-03-18 21:34:00,
2013-03-18 17:35:00,43.5,41.9,29.93,South,174,3.5,3.5,94,0.16,RA,,0.69,WeatherDisplay:10.37,2013-03-18 21:35:00,
2013-03-18 17:36:00,43.5,41.9,29.93,ESE,123,2.3,2.3,94,0.16,RA,,0.69,WeatherDisplay:10.37,2013-03-18 21:36:00,
2013-03-18 17:37:00,43.5,41.9,29.93,SE,125,3.5,3.5,94,0.16,RA,,0.70,WeatherDisplay:10.37,2013-03-18 21:37:00,
2013-03-18 17:40:00,43.4,41.8,29.93,ESE,108,5.8,5.8,94,0.17,RA,,0.71,WeatherDisplay:10.37,2013-03-18 21:40:00,
2013-03-18 17:41:00,43.4,41.8,29.92,SE,129,6.0,6.0,94,0.18,RA,,0.72,WeatherDisplay:10.37,2013-03-18 21:41:00,
2013-03-18 17:42:00,43.4,41.8,29.92,SE,144,7.0,7.0,94,0.17,RA,,0.72,WeatherDisplay:10.37,2013-03-18 21:42:00,
2013-03-18 17:45:00,43.3,41.7,29.91,SE,131,9.2,9.2,94,0.17,RA,,0.74,WeatherDisplay:10.37,2013-03-18 21:45:00,
2013-03-18 17:47:00,43.3,42.0,29.91,SSE,149,4.6,4.6,95,0.18,RA,,0.74,WeatherDisplay:10.37,2013-03-18 21:47:00,
2013-03-18 17:50:00,43.3,42.0,29.91,ESE,116,6.9,6.9,95,0.18,RA,,0.75,WeatherDisplay:10.37,2013-03-18 21:50:00,
2013-03-18 17:51:00,43.3,41.7,29.91,SE,134,8.1,8.1,94,0.18,RA,,0.75,WeatherDisplay:10.37,2013-03-18 21:51:00,
2013-03-18 17:52:00,43.2,41.6,29.91,SSE,148,6.9,6.9,94,0.18,RA,,0.75,WeatherDisplay:10.37,2013-03-18 21:52:00,
2013-03-18 17:53:00,43.2,41.6,29.91,ESE,122,6.9,6.9,94,0.18,RA,,0.75,WeatherDisplay:10.37,2013-03-18 21:53:00,
2013-03-18 17:55:00,43.2,41.9,29.91,ESE,103,4.6,4.6,95,0.19,RA,,0.76,WeatherDisplay:10.37,2013-03-18 21:55:00,
2013-03-18 17:56:00,43.2,41.9,29.91,ESE,122,3.5,3.5,95,0.18,RA,,0.76,WeatherDisplay:10.37,2013-03-18 21:56:00,
2013-03-18 17:57:00,43.2,41.9,29.91,SE,132,3.5,3.5,95,0.18,RA,,0.76,WeatherDisplay:10.37,2013-03-18 21:57:00,
2013-03-18 17:58:00,43.2,41.9,29.91,SE,141,4.0,4.0,95,0.18,RA,,0.76,WeatherDisplay:10.37,2013-03-18 21:58:00,
2013-03-18 18:00:00,43.2,41.9,29.90,SE,134,3.5,3.5,95,0.18,RA,,0.77,WeatherDisplay:10.37,2013-03-18 22:00:00,
2013-03-18 18:02:00,43.2,41.9,29.90,SSE,147,4.6,4.6,95,0.17,RA,,0.77,WeatherDisplay:10.37,2013-03-18 22:02:00,
2013-03-18 18:03:00,43.2,41.9,29.90,SSE,154,5.8,5.8,95,0.17,RA,,0.77,WeatherDisplay:10.37,2013-03-18 22:03:00,
2013-03-18 18:04:00,43.1,41.8,29.90,SE,135,5.8,5.8,95,0.17,RA,,0.77,WeatherDisplay:10.37,2013-03-18 22:04:00,
2013-03-18 18:05:00,43.1,41.8,29.90,SE,133,2.3,2.3,95,0.17,RA,,0.77,WeatherDisplay:10.37,2013-03-18 22:05:00,
2013-03-18 18:08:00,43.1,41.8,29.90,SE,129,4.6,4.6,95,0.17,RA,,0.78,WeatherDisplay:10.37,2013-03-18 22:08:00,
2013-03-18 18:09:00,43.1,41.8,29.90,East,80,3.5,3.5,95,0.17,RA,,0.78,WeatherDisplay:10.37,2013-03-18 22:09:00,
2013-03-18 18:10:00,43.1,41.8,29.90,SE,133,3.5,3.5,95,0.16,RA,,0.78,WeatherDisplay:10.37,2013-03-18 22:10:00,
2013-03-18 18:13:00,43.1,41.8,29.90,East,85,3.5,3.5,95,0.15,RA,,0.79,WeatherDisplay:10.37,2013-03-18 22:13:00,
2013-03-18 18:14:00,43.1,41.8,29.91,ENE,78,3.5,3.5,95,0.16,RA,,0.79,WeatherDisplay:10.37,2013-03-18 22:14:00,
2013-03-18 18:15:00,43.1,41.8,29.91,SSE,150,1.1,1.1,95,0.15,RA,,0.79,WeatherDisplay:10.37,2013-03-18 22:15:00,
2013-03-18 18:18:00,43.1,41.8,29.91,NE,37,3.5,3.5,95,0.14,RA,,0.79,WeatherDisplay:10.37,2013-03-18 22:18:00,
2013-03-18 18:19:00,43.1,41.8,29.91,NNE,15,2.3,2.3,95,0.14,RA,,0.79,WeatherDisplay:10.37,2013-03-18 22:19:00,
2013-03-18 18:21:00,43.1,41.8,29.91,North,1,2.3,2.3,95,0.14,RA,,0.79,WeatherDisplay:10.37,2013-03-18 22:21:00,
2013-03-18 18:23:00,43.1,41.8,29.91,North,8,1.1,1.1,95,0.14,RA,,0.80,WeatherDisplay:10.37,2013-03-18 22:23:00,
2013-03-18 18:24:00,43.1,41.8,29.91,North,8,1.1,0.0,95,0.14,RA,,0.80,WeatherDisplay:10.37,2013-03-18 22:24:00,
2013-03-18 18:25:00,43.1,41.8,29.91,North,8,1.1,1.1,95,0.14,RA,,0.80,WeatherDisplay:10.37,2013-03-18 22:25:00,
2013-03-18 18:26:00,43.1,41.8,29.91,North,359,1.1,1.1,95,0.14,RA,,0.80,WeatherDisplay:10.37,2013-03-18 22:26:00,
2013-03-18 18:28:00,43.0,41.7,29.91,North,359,0.0,0.0,95,0.14,RA,,0.81,WeatherDisplay:10.37,2013-03-18 22:28:00,
2013-03-18 18:29:00,43.0,41.7,29.91,North,359,0.0,0.0,95,0.14,RA,,0.81,WeatherDisplay:10.37,2013-03-18 22:29:00,
2013-03-18 18:30:00,43.0,41.7,29.91,North,359,0.0,0.0,95,0.14,RA,,0.81,WeatherDisplay:10.37,2013-03-18 22:30:00,
2013-03-18 18:31:00,43.0,41.7,29.91,NNE,19,1.1,1.1,95,0.14,RA,,0.81,WeatherDisplay:10.37,2013-03-18 22:31:00,
2013-03-18 18:33:00,43.0,41.7,29.91,NE,40,4.0,4.0,95,0.14,RA,,0.82,WeatherDisplay:10.37,2013-03-18 22:33:00,
2013-03-18 18:35:00,43.0,41.7,29.91,NE,36,2.3,2.3,95,0.13,RA,,0.82,WeatherDisplay:10.37,2013-03-18 22:35:00,
2013-03-18 18:37:00,42.9,41.6,29.91,NE,43,2.3,2.3,95,0.13,RA,,0.82,WeatherDisplay:10.37,2013-03-18 22:37:00,
2013-03-18 18:39:00,42.9,41.6,29.90,East,88,2.3,2.3,95,0.12,RA,,0.83,WeatherDisplay:10.37,2013-03-18 22:39:00,
2013-03-18 18:40:00,42.9,41.6,29.90,East,82,2.3,2.3,95,0.12,RA,,0.83,WeatherDisplay:10.37,2013-03-18 22:40:00,
2013-03-18 18:42:00,42.9,41.6,29.90,East,88,3.5,3.5,95,0.11,RA,,0.83,WeatherDisplay:10.37,2013-03-18 22:42:00,
2013-03-18 18:44:00,42.8,41.5,29.89,East,80,4.0,4.0,95,0.10,RA,,0.83,WeatherDisplay:10.37,2013-03-18 22:44:00,
2013-03-18 18:45:00,42.7,41.4,29.89,East,85,7.0,7.0,95,0.10,RA,,0.83,WeatherDisplay:10.37,2013-03-18 22:45:00,
2013-03-18 18:46:00,42.7,41.1,29.89,East,101,6.9,6.9,94,0.09,RA,,0.83,WeatherDisplay:10.37,2013-03-18 22:46:00,
2013-03-18 18:48:00,42.4,40.8,29.88,ESE,116,3.5,3.5,94,0.09,,,0.83,WeatherDisplay:10.37,2013-03-18 22:48:00,
2013-03-18 18:49:00,42.4,40.8,29.88,East,80,5.0,5.0,94,0.08,,,0.84,WeatherDisplay:10.37,2013-03-18 22:49:00,
2013-03-18 18:50:00,42.3,40.7,29.88,East,84,6.9,6.9,94,0.09,RA,,0.84,WeatherDisplay:10.37,2013-03-18 22:50:00,
2013-03-18 18:51:00,42.2,40.6,29.88,East,96,4.0,4.0,94,0.09,RA,,0.84,WeatherDisplay:10.37,2013-03-18 22:51:00,
2013-03-18 18:53:00,42.0,40.4,29.87,East,93,7.0,7.0,94,0.09,RA,,0.84,WeatherDisplay:10.37,2013-03-18 22:53:00,
2013-03-18 18:54:00,41.9,40.3,29.87,ENE,77,6.9,6.9,94,0.08,RA,,0.84,WeatherDisplay:10.37,2013-03-18 22:54:00,
2013-03-18 18:55:00,41.8,40.2,29.87,East,96,5.8,5.8,94,0.08,RA,,0.84,WeatherDisplay:10.37,2013-03-18 22:55:00,
2013-03-18 18:56:00,41.8,40.2,29.87,ESE,104,5.0,5.0,94,0.08,RA,,0.84,WeatherDisplay:10.37,2013-03-18 22:56:00,
2013-03-18 18:58:00,41.7,40.4,29.87,ENE,68,4.6,4.6,95,0.08,RA,,0.84,WeatherDisplay:10.37,2013-03-18 22:58:00,
2013-03-18 19:00:00,41.7,40.4,29.87,East,91,3.5,3.5,95,0.07,,,0.84,WeatherDisplay:10.37,2013-03-18 23:00:00,
2013-03-18 19:02:00,41.7,40.4,29.87,ENE,61,3.5,3.5,95,0.07,,,0.84,WeatherDisplay:10.37,2013-03-18 23:02:00,
2013-03-18 19:04:00,41.7,40.4,29.87,East,81,3.5,3.5,95,0.07,,,0.84,WeatherDisplay:10.37,2013-03-18 23:04:00,
2013-03-18 19:06:00,41.8,40.5,29.86,East,92,4.6,4.6,95,0.07,,,0.84,WeatherDisplay:10.37,2013-03-18 23:06:00,
2013-03-18 19:07:00,41.8,40.5,29.86,East,84,3.5,3.5,95,0.06,,,0.84,WeatherDisplay:10.37,2013-03-18 23:07:00,
2013-03-18 19:08:00,41.8,40.5,29.86,East,80,4.0,4.0,95,0.06,,,0.84,WeatherDisplay:10.37,2013-03-18 23:08:00,
2013-03-18 19:09:00,41.9,40.8,29.86,East,82,3.5,3.5,96,0.06,,,0.84,WeatherDisplay:10.37,2013-03-18 23:09:00,
2013-03-18 19:11:00,42.0,40.9,29.86,East,85,4.6,4.6,96,0.06,,,0.85,WeatherDisplay:10.37,2013-03-18 23:11:00,
2013-03-18 19:13:00,42.0,40.9,29.85,SSE,155,2.3,2.3,96,0.07,RA,,0.85,WeatherDisplay:10.37,2013-03-18 23:13:00,
2013-03-18 19:14:00,42.0,40.9,29.85,East,99,4.0,4.0,96,0.06,RA,,0.85,WeatherDisplay:10.37,2013-03-18 23:14:00,
2013-03-18 19:17:00,42.0,40.9,29.85,East,101,5.0,5.0,96,0.06,RA,,0.85,WeatherDisplay:10.37,2013-03-18 23:17:00,
2013-03-18 19:18:00,42.0,40.9,29.85,ENE,77,4.6,4.6,96,0.06,RA,,0.85,WeatherDisplay:10.37,2013-03-18 23:18:00,
2013-03-18 19:19:00,42.0,40.9,29.85,ESE,103,5.8,5.8,96,0.06,RA,,0.85,WeatherDisplay:10.37,2013-03-18 23:19:00,
2013-03-18 19:22:00,42.0,40.9,29.86,ENE,68,3.0,3.0,96,0.06,,,0.85,WeatherDisplay:10.37,2013-03-18 23:22:00,
2013-03-18 19:23:00,42.0,40.9,29.85,NNE,18,4.6,4.6,96,0.05,,,0.85,WeatherDisplay:10.37,2013-03-18 23:23:00,
2013-03-18 19:24:00,42.0,40.9,29.86,NE,53,3.5,3.5,96,0.05,,,0.85,WeatherDisplay:10.37,2013-03-18 23:24:00,
2013-03-18 19:27:00,42.0,40.9,29.86,East,98,3.5,3.5,96,0.05,,,0.85,WeatherDisplay:10.37,2013-03-18 23:27:00,
2013-03-18 19:29:00,42.0,40.7,29.86,NE,37,2.3,2.3,95,0.04,,,0.85,WeatherDisplay:10.37,2013-03-18 23:29:00,
2013-03-18 19:33:00,41.9,40.6,29.86,SE,131,2.3,2.3,95,0.03,,,0.85,WeatherDisplay:10.37,2013-03-18 23:33:00,
2013-03-18 19:34:00,41.8,40.5,29.86,SE,132,1.1,1.1,95,0.03,,,0.85,WeatherDisplay:10.37,2013-03-18 23:34:00,
2013-03-18 19:35:00,41.8,40.5,29.86,ENE,61,0.0,4.0,95,0.00,,,0.85,WeatherDisplay:10.37,2013-03-18 23:35:00,
2013-03-18 19:38:00,41.8,40.5,29.85,ENE,65,3.0,3.0,95,0.02,,,0.85,WeatherDisplay:10.37,2013-03-18 23:38:00,
2013-03-18 19:39:00,41.7,40.4,29.85,ENE,75,3.5,3.5,95,0.02,,,0.85,WeatherDisplay:10.37,2013-03-18 23:39:00,
2013-03-18 19:40:00,41.7,40.4,29.85,ENE,73,3.5,3.5,95,0.02,,,0.85,WeatherDisplay:10.37,2013-03-18 23:40:00,
2013-03-18 19:43:00,41.6,40.3,29.84,East,98,3.5,3.5,95,0.02,,,0.85,WeatherDisplay:10.37,2013-03-18 23:43:00,
2013-03-18 19:44:00,41.6,40.3,29.83,SE,130,3.5,3.5,95,0.02,,,0.85,WeatherDisplay:10.37,2013-03-18 23:44:00,
2013-03-18 19:45:00,41.6,40.3,29.83,ESE,116,3.5,3.5,95,0.02,,,0.85,WeatherDisplay:10.37,2013-03-18 23:45:00,
2013-03-18 19:48:00,41.6,40.3,29.79,East,101,8.1,8.1,95,0.02,,,0.85,WeatherDisplay:10.37,2013-03-18 23:48:00,
2013-03-18 19:49:00,41.5,40.2,29.83,NW,307,9.2,9.2,95,0.02,,,0.85,WeatherDisplay:10.37,2013-03-18 23:49:00,
2013-03-18 19:50:00,41.6,40.2,29.81,ESE,107,3.0,9.0,95,0.00,,,0.85,WeatherDisplay:10.37,2013-03-18 23:50:00,
2013-03-18 19:53:00,41.7,40.6,29.87,WNW,293,6.9,6.9,96,0.01,,,0.85,WeatherDisplay:10.37,2013-03-18 23:53:00,
2013-03-18 19:55:00,41.7,40.6,29.87,WNW,282,1.1,1.1,96,0.01,,,0.85,WeatherDisplay:10.37,2013-03-18 23:55:00,
2013-03-18 19:58:00,41.9,40.8,29.86,SW,222,3.5,3.5,96,0.01,,,0.85,WeatherDisplay:10.37,2013-03-18 23:58:00,
2013-03-18 20:00:00,41.9,40.8,29.85,WNW,295,0.0,4.0,96,0.00,,,0.85,WeatherDisplay:10.37,2013-03-19 00:00:00,
2013-03-18 20:03:00,42.0,40.9,29.85,SSE,159,2.3,2.3,96,0.01,,,0.85,WeatherDisplay:10.37,2013-03-19 00:03:00,
2013-03-18 20:05:00,42.1,41.0,29.85,SE,143,2.3,2.3,96,0.01,,,0.85,WeatherDisplay:10.37,2013-03-19 00:05:00,
2013-03-18 20:06:00,42.2,41.1,29.85,SSE,147,2.3,2.3,96,0.01,,,0.85,WeatherDisplay:10.37,2013-03-19 00:06:00,
2013-03-18 20:08:00,42.2,41.1,29.85,SSE,147,1.0,1.0,96,0.01,,,0.85,WeatherDisplay:10.37,2013-03-19 00:08:00,
2013-03-18 20:10:00,42.2,41.1,29.85,SSE,148,1.1,1.1,96,0.01,,,0.85,WeatherDisplay:10.37,2013-03-19 00:10:00,
2013-03-18 20:12:00,42.2,41.1,29.85,SSE,148,2.0,2.0,96,0.01,,,0.85,WeatherDisplay:10.37,2013-03-19 00:12:00,
2013-03-18 20:13:00,42.2,40.9,29.85,East,88,2.3,2.3,95,0.00,,,0.85,WeatherDisplay:10.37,2013-03-19 00:13:00,
2013-03-18 20:15:00,42.2,40.9,29.85,East,85,1.1,1.1,95,0.00,,,0.85,WeatherDisplay:10.37,2013-03-19 00:15:00,
2013-03-18 20:17:00,42.2,40.9,29.84,SSE,149,2.3,2.3,95,0.00,,,0.85,WeatherDisplay:10.37,2013-03-19 00:17:00,
2013-03-18 20:19:00,42.2,40.9,29.84,SSE,151,1.1,1.1,95,0.00,,,0.85,WeatherDisplay:10.37,2013-03-19 00:19:00,
2013-03-18 20:20:00,42.2,40.9,29.84,SSE,153,1.1,1.1,95,0.00,,,0.85,WeatherDisplay:10.37,2013-03-19 00:20:00,
2013-03-18 20:22:00,42.2,40.9,29.84,SE,136,2.3,2.3,95,0.00,,,0.85,WeatherDisplay:10.37,2013-03-19 00:22:00,
2013-03-18 20:24:00,42.2,40.9,29.84,SE,127,1.1,1.1,95,0.00,,,0.85,WeatherDisplay:10.37,2013-03-19 00:24:00,
2013-03-18 20:26:00,42.2,40.9,29.84,SE,127,0.0,0.0,95,0.00,,,0.85,WeatherDisplay:10.37,2013-03-19 00:26:00,
2013-03-18 20:27:00,42.2,40.9,29.84,SE,127,0.0,0.0,95,0.00,,,0.85,WeatherDisplay:10.37,2013-03-19 00:27:00,
2013-03-18 20:28:00,42.2,40.9,29.84,SE,127,0.0,0.1,95,0.00,,,0.85,WeatherDisplay:10.37,2013-03-19 00:28:00,
2013-03-18 20:29:00,42.2,40.9,29.83,SE,127,0.0,0.0,95,0.00,,,0.85,WeatherDisplay:10.37,2013-03-19 00:29:00,
2013-03-18 20:31:00,42.2,40.9,29.83,SE,127,1.1,1.1,95,0.00,,,0.85,WeatherDisplay:10.37,2013-03-19 00:31:00,
2013-03-18 20:32:00,42.2,40.9,29.83,SE,139,0.0,0.0,95,0.00,,,0.85,WeatherDisplay:10.37,2013-03-19 00:32:00,
2013-03-18 20:33:00,42.2,40.9,29.83,SSE,158,1.1,1.1,95,0.00,,,0.85,WeatherDisplay:10.37,2013-03-19 00:33:00,
2013-03-18 20:35:00,42.1,40.8,29.83,SE,129,2.3,2.3,95,0.00,,,0.85,WeatherDisplay:10.37,2013-03-19 00:35:00,
2013-03-18 20:37:00,42.1,40.8,29.82,SE,124,2.3,2.3,95,0.00,,,0.85,WeatherDisplay:10.37,2013-03-19 00:37:00,
2013-03-18 20:38:00,42.1,40.8,29.82,SSE,158,4.0,4.0,95,0.00,,,0.85,WeatherDisplay:10.37,2013-03-19 00:38:00,
2013-03-18 20:41:00,42.0,40.7,29.82,SE,143,3.5,3.5,95,0.00,,,0.85,WeatherDisplay:10.37,2013-03-19 00:41:00,
2013-03-18 20:42:00,42.0,40.7,29.82,SE,141,1.1,0.0,95,0.00,,,0.85,WeatherDisplay:10.37,2013-03-19 00:42:00,
2013-03-18 20:43:00,42.0,40.7,29.82,SE,141,0.0,0.0,95,0.00,,,0.85,WeatherDisplay:10.37,2013-03-19 00:43:00,
2013-03-18 20:47:00,41.9,40.6,29.84,SE,141,0.0,0.0,95,0.00,,,0.85,WeatherDisplay:10.37,2013-03-19 00:47:00,
2013-03-18 20:48:00,41.9,40.6,29.83,SE,141,0.0,0.0,95,0.00,,,0.85,WeatherDisplay:10.37,2013-03-19 00:48:00,
2013-03-18 20:52:00,41.9,40.6,29.84,SE,141,0.0,0.0,95,0.00,,,0.85,WeatherDisplay:10.37,2013-03-19 00:52:00,
2013-03-18 20:53:00,41.9,40.6,29.84,SE,141,0.0,0.4,95,0.00,,,0.85,WeatherDisplay:10.37,2013-03-19 00:53:00,
2013-03-18 20:54:00,41.9,40.6,29.83,SE,141,1.1,1.1,95,0.00,,,0.85,WeatherDisplay:10.37,2013-03-19 00:54:00,
2013-03-18 20:57:00,41.9,40.6,29.83,SSE,147,1.1,1.1,95,0.00,,,0.85,WeatherDisplay:10.37,2013-03-19 00:57:00,
2013-03-18 20:58:00,41.9,40.6,29.83,SE,137,2.3,2.3,95,0.00,,,0.85,WeatherDisplay:10.37,2013-03-19 00:58:00,
2013-03-18 20:59:00,41.9,40.6,29.82,SE,130,2.3,2.3,95,0.00,,,0.85,WeatherDisplay:10.37,2013-03-19 00:59:00,
2013-03-18 21:02:00,41.8,40.5,29.83,SE,129,2.3,2.3,95,0.00,,,0.85,WeatherDisplay:10.37,2013-03-19 01:02:00,
2013-03-18 21:04:00,41.7,40.4,29.83,NW,326,1.1,1.1,95,0.00,,,0.85,WeatherDisplay:10.37,2013-03-19 01:04:00,
2013-03-18 21:08:00,41.7,40.4,29.83,East,94,2.3,2.3,95,0.00,,,0.85,WeatherDisplay:10.37,2013-03-19 01:08:00,
2013-03-18 21:09:00,41.7,40.4,29.82,East,94,1.1,0.0,95,0.00,,,0.85,WeatherDisplay:10.37,2013-03-19 01:09:00,
2013-03-18 21:13:00,41.6,40.3,29.82,ESE,116,1.1,1.1,95,0.00,,,0.85,WeatherDisplay:10.37,2013-03-19 01:13:00,
2013-03-18 21:14:00,41.6,40.3,29.82,SE,142,2.3,2.3,95,0.00,,,0.85,WeatherDisplay:10.37,2013-03-19 01:14:00,
2013-03-18 21:15:00,41.6,40.3,29.82,SE,143,1.1,1.1,95,0.00,,,0.85,WeatherDisplay:10.37,2013-03-19 01:15:00,
2013-03-18 21:18:00,41.6,40.3,29.82,SE,143,0.0,0.0,95,0.00,,,0.85,WeatherDisplay:10.37,2013-03-19 01:18:00,
2013-03-18 21:19:00,41.6,40.3,29.82,SE,143,0.0,0.0,95,0.00,,,0.85,WeatherDisplay:10.37,2013-03-19 01:19:00,
2013-03-18 21:20:00,41.6,40.5,29.82,SSE,147,1.1,1.1,96,0.00,,,0.85,WeatherDisplay:10.37,2013-03-19 01:20:00,
2013-03-18 21:23:00,41.6,40.5,29.82,SSE,149,1.1,1.1,96,0.00,,,0.85,WeatherDisplay:10.37,2013-03-19 01:23:00,
2013-03-18 21:24:00,41.5,40.4,29.82,SSE,149,1.1,1.1,96,0.00,,,0.85,WeatherDisplay:10.37,2013-03-19 01:24:00,
2013-03-18 21:25:00,41.5,40.4,29.82,SSE,151,1.1,1.1,96,0.00,,,0.85,WeatherDisplay:10.37,2013-03-19 01:25:00,
2013-03-18 21:29:00,41.5,40.4,29.82,SSE,151,0.0,0.0,96,0.00,,,0.85,WeatherDisplay:10.37,2013-03-19 01:29:00,
2013-03-18 21:30:00,41.5,40.4,29.82,SSE,151,0.0,0.0,96,0.00,,,0.85,WeatherDisplay:10.37,2013-03-19 01:30:00,
2013-03-18 21:34:00,41.4,40.3,29.82,SSE,151,0.0,0.0,96,0.00,,,0.85,WeatherDisplay:10.37,2013-03-19 01:34:00,
2013-03-18 21:35:00,41.4,40.3,29.83,SSE,151,0.0,0.0,96,0.00,,,0.85,WeatherDisplay:10.37,2013-03-19 01:35:00,
2013-03-18 21:36:00,41.4,40.3,29.83,SSE,151,0.0,0.0,96,0.00,,,0.85,WeatherDisplay:10.37,2013-03-19 01:36:00,
2013-03-18 21:39:00,41.3,40.2,29.83,SSE,151,0.0,0.0,96,0.00,,,0.85,WeatherDisplay:10.37,2013-03-19 01:39:00,
2013-03-18 21:40:00,41.3,40.2,29.83,SSE,151,0.0,0.0,96,0.00,,,0.85,WeatherDisplay:10.37,2013-03-19 01:40:00,
2013-03-18 21:41:00,41.3,40.2,29.83,SSE,151,0.0,0.0,96,0.00,,,0.85,WeatherDisplay:10.37,2013-03-19 01:41:00,
2013-03-18 21:42:00,41.3,40.2,29.83,SSE,151,1.0,0.0,96,0.00,,,0.85,WeatherDisplay:10.37,2013-03-19 01:42:00,
2013-03-18 21:44:00,41.2,40.1,29.83,SSE,151,1.1,0.0,96,0.00,,,0.85,WeatherDisplay:10.37,2013-03-19 01:44:00,
2013-03-18 21:45:00,41.2,40.1,29.83,SSE,151,0.0,0.0,96,0.00,,,0.85,WeatherDisplay:10.37,2013-03-19 01:45:00,
2013-03-18 21:47:00,41.2,40.1,29.83,SSE,151,0.0,0.0,96,0.00,,,0.85,WeatherDisplay:10.37,2013-03-19 01:47:00,
2013-03-18 21:49:00,41.1,40.0,29.83,SSE,151,1.1,0.0,96,0.00,,,0.85,WeatherDisplay:10.37,2013-03-19 01:49:00,
2013-03-18 21:50:00,41.1,40.0,29.83,SSE,151,0.0,0.0,96,0.00,,,0.85,WeatherDisplay:10.37,2013-03-19 01:50:00,
2013-03-18 21:52:00,41.1,40.0,29.83,SSE,151,0.0,0.0,96,0.00,,,0.85,WeatherDisplay:10.37,2013-03-19 01:52:00,
2013-03-18 21:53:00,41.2,40.1,29.83,SSE,151,0.0,0.0,96,0.00,,,0.85,WeatherDisplay:10.37,2013-03-19 01:53:00,
2013-03-18 21:55:00,41.2,40.1,29.83,SSE,151,1.1,0.0,96,0.00,,,0.85,WeatherDisplay:10.37,2013-03-19 01:55:00,
2013-03-18 21:57:00,41.3,40.2,29.83,SSE,151,0.0,0.0,96,0.00,,,0.85,WeatherDisplay:10.37,2013-03-19 01:57:00,
2013-03-18 21:58:00,41.3,40.2,29.83,SSE,151,0.0,0.0,96,0.00,,,0.85,WeatherDisplay:10.37,2013-03-19 01:58:00,
2013-03-18 22:00:00,41.3,40.2,29.83,SSE,151,0.0,0.0,96,0.00,,,0.85,WeatherDisplay:10.37,2013-03-19 02:00:00,
2013-03-18 22:03:00,41.4,40.3,29.83,SSE,151,1.1,0.0,96,0.00,,,0.85,WeatherDisplay:10.37,2013-03-19 02:03:00,
2013-03-18 22:05:00,41.5,40.4,29.83,SE,138,2.0,2.0,96,0.00,,,0.85,WeatherDisplay:10.37,2013-03-19 02:05:00,
2013-03-18 22:08:00,41.6,40.5,29.83,SSE,164,1.1,1.1,96,0.00,,,0.85,WeatherDisplay:10.37,2013-03-19 02:08:00,
2013-03-18 22:10:00,41.7,40.6,29.83,SSE,164,1.1,1.1,96,0.00,,,0.85,WeatherDisplay:10.37,2013-03-19 02:10:00,
2013-03-18 22:13:00,41.7,40.6,29.83,SSE,164,1.1,0.0,96,0.00,,,0.85,WeatherDisplay:10.37,2013-03-19 02:13:00,
2013-03-18 22:16:00,41.9,40.8,29.83,East,87,3.0,3.0,96,0.00,,,0.85,WeatherDisplay:10.37,2013-03-19 02:16:00,
2013-03-18 22:17:00,41.9,40.8,29.84,East,90,3.5,3.5,96,0.00,,,0.85,WeatherDisplay:10.37,2013-03-19 02:17:00,
2013-03-18 22:18:00,41.9,40.8,29.84,ESE,102,3.5,3.5,96,0.00,,,0.85,WeatherDisplay:10.37,2013-03-19 02:18:00,
2013-03-18 22:19:00,41.9,40.8,29.84,ESE,102,3.5,3.5,96,0.00,,,0.85,WeatherDisplay:10.37,2013-03-19 02:19:00,
2013-03-18 22:22:00,41.9,40.8,29.83,ESE,103,2.3,2.3,96,0.00,,,0.85,WeatherDisplay:10.37,2013-03-19 02:22:00,
2013-03-18 22:24:00,41.9,40.8,29.83,SSE,150,2.3,2.3,96,0.00,,,0.85,WeatherDisplay:10.37,2013-03-19 02:24:00,
2013-03-18 22:27:00,41.9,40.8,29.83,East,82,2.3,2.3,96,0.00,,,0.85,WeatherDisplay:10.37,2013-03-19 02:27:00,
2013-03-18 22:28:00,41.9,40.8,29.83,East,101,1.1,1.1,96,0.00,,,0.85,WeatherDisplay:10.37,2013-03-19 02:28:00,
2013-03-18 22:29:00,41.9,40.8,29.83,East,94,2.0,2.0,96,0.00,,,0.85,WeatherDisplay:10.37,2013-03-19 02:29:00,
2013-03-18 22:32:00,41.9,40.8,29.83,ENE,77,2.3,2.3,96,0.00,,,0.85,WeatherDisplay:10.37,2013-03-19 02:32:00,
2013-03-18 22:33:00,41.9,40.8,29.83,East,87,3.0,3.0,96,0.00,,,0.85,WeatherDisplay:10.37,2013-03-19 02:33:00,
2013-03-18 22:34:00,41.9,40.8,29.83,East,87,2.3,2.4,96,0.00,,,0.85,WeatherDisplay:10.37,2013-03-19 02:34:00,
2013-03-18 22:37:00,41.8,40.5,29.83,East,96,1.1,1.1,95,0.00,,,0.85,WeatherDisplay:10.37,2013-03-19 02:37:00,
2013-03-18 22:38:00,41.8,40.5,29.83,East,96,1.1,1.1,95,0.00,,,0.85,WeatherDisplay:10.37,2013-03-19 02:38:00,
2013-03-18 22:39:00,41.8,40.5,29.83,East,99,2.3,2.3,95,0.00,,,0.85,WeatherDisplay:10.37,2013-03-19 02:39:00,
2013-03-18 22:42:00,41.8,40.5,29.83,East,95,3.5,3.5,95,0.00,,,0.85,WeatherDisplay:10.37,2013-03-19 02:42:00,
2013-03-18 22:43:00,41.7,40.4,29.83,SE,141,2.3,2.3,95,0.00,,,0.85,WeatherDisplay:10.37,2013-03-19 02:43:00,
2013-03-18 22:44:00,41.7,40.4,29.83,SE,141,2.3,2.3,95,0.00,,,0.85,WeatherDisplay:10.37,2013-03-19 02:44:00,
2013-03-18 22:47:00,41.7,40.4,29.83,SE,141,1.1,1.1,95,0.00,,,0.85,WeatherDisplay:10.37,2013-03-19 02:47:00,
2013-03-18 22:49:00,41.8,40.5,29.84,SSE,147,2.3,2.3,95,0.00,,,0.85,WeatherDisplay:10.37,2013-03-19 02:49:00,
2013-03-18 22:52:00,41.7,40.4,29.84,East,87,3.5,3.5,95,0.00,,,0.85,WeatherDisplay:10.37,2013-03-19 02:52:00,
2013-03-18 22:54:00,41.7,40.4,29.84,SSE,164,1.1,1.1,95,0.00,,,0.85,WeatherDisplay:10.37,2013-03-19 02:54:00,
2013-03-18 22:55:00,41.7,40.4,29.84,ESE,111,0.0,3.0,95,0.00,,,0.85,WeatherDisplay:10.37,2013-03-19 02:55:00,
2013-03-18 22:58:00,41.6,40.3,29.84,East,80,1.1,1.1,95,0.00,,,0.85,WeatherDisplay:10.37,2013-03-19 02:58:00,
2013-03-18 22:59:00,41.6,40.0,29.84,ESE,110,3.5,3.5,94,0.00,,,0.85,WeatherDisplay:10.37,2013-03-19 02:59:00,
2013-03-18 23:00:00,41.6,40.0,29.84,ESE,118,3.5,3.5,94,0.00,,,0.85,WeatherDisplay:10.37,2013-03-19 03:00:00,
2013-03-18 23:03:00,41.5,39.9,29.84,East,89,3.0,3.0,94,0.00,,,0.85,WeatherDisplay:10.37,2013-03-19 03:03:00,
2013-03-18 23:04:00,41.5,39.9,29.85,SE,125,3.5,3.5,94,0.00,,,0.85,WeatherDisplay:10.37,2013-03-19 03:04:00,
2013-03-18 23:05:00,41.5,39.9,29.84,SE,126,3.5,3.5,94,0.00,,,0.85,WeatherDisplay:10.37,2013-03-19 03:05:00,
2013-03-18 23:08:00,41.5,39.9,29.84,SSE,147,2.3,2.3,94,0.00,,,0.85,WeatherDisplay:10.37,2013-03-19 03:08:00,
2013-03-18 23:10:00,41.5,39.9,29.84,ESE,117,1.0,3.0,94,0.00,,,0.85,WeatherDisplay:10.37,2013-03-19 03:10:00,
2013-03-18 23:14:00,41.4,39.8,29.84,ESE,115,3.5,3.5,94,0.00,,,0.85,WeatherDisplay:10.37,2013-03-19 03:14:00,
2013-03-18 23:15:00,41.4,39.8,29.84,SE,124,2.0,4.0,94,0.00,,,0.85,WeatherDisplay:10.37,2013-03-19 03:15:00,
2013-03-18 23:19:00,41.3,39.7,29.85,ENE,73,3.5,3.5,94,0.00,,,0.85,WeatherDisplay:10.37,2013-03-19 03:19:00,
2013-03-18 23:20:00,41.3,39.7,29.85,East,96,3.5,3.5,94,0.00,,,0.85,WeatherDisplay:10.37,2013-03-19 03:20:00,
2013-03-18 23:24:00,41.3,39.7,29.84,East,88,3.5,3.5,94,0.00,,,0.85,WeatherDisplay:10.37,2013-03-19 03:24:00,
2013-03-18 23:25:00,41.3,40.0,29.84,ENE,60,3.5,3.5,95,0.00,,,0.85,WeatherDisplay:10.37,2013-03-19 03:25:00,
2013-03-18 23:26:00,41.3,39.7,29.84,ENE,58,3.5,3.5,94,0.00,,,0.85,WeatherDisplay:10.37,2013-03-19 03:26:00,
2013-03-18 23:29:00,41.3,39.7,29.84,ENE,75,2.3,2.3,94,0.00,,,0.85,WeatherDisplay:10.37,2013-03-19 03:29:00,
2013-03-18 23:30:00,41.3,39.7,29.84,ENE,69,2.3,2.3,94,0.00,,,0.85,WeatherDisplay:10.37,2013-03-19 03:30:00,
2013-03-18 23:31:00,41.3,39.7,29.84,NNE,16,1.1,1.1,94,0.00,,,0.85,WeatherDisplay:10.37,2013-03-19 03:31:00,
2013-03-18 23:32:00,41.2,39.6,29.84,NNE,16,2.3,2.3,94,0.00,,,0.85,WeatherDisplay:10.37,2013-03-19 03:32:00,
2013-03-18 23:34:00,41.2,39.9,29.84,East,97,3.0,3.0,95,0.00,,,0.85,WeatherDisplay:10.37,2013-03-19 03:34:00,
2013-03-18 23:35:00,41.2,39.6,29.84,East,88,3.5,3.5,94,0.00,,,0.85,WeatherDisplay:10.37,2013-03-19 03:35:00,
2013-03-18 23:36:00,41.2,39.6,29.84,East,88,3.5,3.5,94,0.00,,,0.85,WeatherDisplay:10.37,2013-03-19 03:36:00,
2013-03-18 23:38:00,41.2,39.6,29.84,East,88,1.1,0.0,94,0.00,,,0.85,WeatherDisplay:10.37,2013-03-19 03:38:00,
2013-03-18 23:40:00,41.2,39.6,29.84,East,87,1.1,1.1,94,0.00,,,0.85,WeatherDisplay:10.37,2013-03-19 03:40:00,
2013-03-18 23:42:00,41.2,39.6,29.84,NE,40,3.5,3.5,94,0.00,,,0.85,WeatherDisplay:10.37,2013-03-19 03:42:00,
2013-03-18 23:43:00,41.2,39.6,29.84,ESE,106,2.0,2.0,94,0.00,,,0.85,WeatherDisplay:10.37,2013-03-19 03:43:00,
2013-03-18 23:45:00,41.1,39.5,29.84,ENE,73,2.3,2.3,94,0.00,,,0.85,WeatherDisplay:10.37,2013-03-19 03:45:00,
2013-03-18 23:47:00,41.1,39.5,29.84,SE,135,2.3,2.3,94,0.00,,,0.85,WeatherDisplay:10.37,2013-03-19 03:47:00,
2013-03-18 23:48:00,41.1,39.5,29.84,East,101,3.0,3.0,94,0.00,,,0.85,WeatherDisplay:10.37,2013-03-19 03:48:00,
2013-03-18 23:50:00,40.9,39.3,29.84,SE,144,3.5,3.5,94,0.00,,,0.85,WeatherDisplay:10.37,2013-03-19 03:50:00,
2013-03-18 23:51:00,40.9,39.3,29.84,ENE,67,2.3,2.3,94,0.00,,,0.85,WeatherDisplay:10.37,2013-03-19 03:51:00,
2013-03-18 23:53:00,40.9,39.3,29.84,ENE,78,3.5,3.5,94,0.00,,,0.85,WeatherDisplay:10.37,2013-03-19 03:53:00,
2013-03-18 23:55:00,40.9,39.3,29.84,East,91,4.0,4.0,94,0.00,,,0.85,WeatherDisplay:10.37,2013-03-19 03:55:00,
2013-03-18 23:56:00,40.9,39.3,29.84,ENE,78,4.6,4.6,94,0.00,,,0.85,WeatherDisplay:10.37,2013-03-19 03:56:00,
2013-03-18 23:58:00,40.8,39.2,29.84,ESE,111,4.6,4.6,94,0.00,,,0.85,WeatherDisplay:10.37,2013-03-19 03:58:00,